GEFSGL_850_meantemp_126.txt.gz
Temperature
12 12 11 11 11 10 10 10 10 10 10 10 10 9 9 9 8 8 7 7 6 6 6 5 5 4 4 3 3 2 1 1 -0 1 1 1 0 0 0 -0 -0 -1 -1
12 12 11 11 11 10 10 10 10 10 10 10 9 9 9 8 8 8 7 7 6 6 5 5 4 4 3 3 2 2 1 1 -0 -0 0 0 -0 -1 -1 -1 -1 -2 -2
12 11 11 11 11 10 10 10 10 10 10 9 9 9 9 8 8 7 7 6 6 5 5 4 4 3 3 3 2 1 1 0 -0 -1 -1 -1 -1 -1 -2 -2 -2 -3 -3
11 11 11 11 10 10 10 10 10 10 9 9 9 9 8 8 7 7 6 6 5 5 5 4 4 3 3 2 2 1 1 0 -0 -1 -1 -1 -2 -2 -3 -3 -3 -3 -3
11 11 11 10 10 10 10 9 9 9 9 9 8 8 8 7 7 6 6 5 5 5 4 4 3 3 2 2 1 1 0 -0 -1 -1 -2 -2 -2 -3 -3 -3 -4 -4 -4
11 11 10 10 10 9 9 9 9 9 9 8 8 8 7 7 7 6 5 5 4 4 4 3 3 2 2 1 1 0 -0 -1 -1 -2 -2 -3 -3 -3 -4 -4 -4 -5 -5
10 10 10 9 9 9 9 9 9 8 8 8 7 7 7 6 6 5 5 4 4 3 3 3 2 2 1 1 0 -0 -1 -1 -2 -2 -3 -3 -3 -3 -4 -4 -5 -5 -5
10 10 9 9 9 9 8 8 8 8 7 7 7 6 6 6 5 5 4 3 3 3 2 2 1 1 1 0 -1 -1 -1 -1 -2 -2 -3 -3 -4 -4 -4 -5 -5 -5 -5
9 9 9 8 8 8 8 8 7 7 7 6 6 6 5 5 4 4 3 2 2 2 2 1 1 0 -0 -1 -1 -2 -2 -2 -2 -3 -3 -4 -4 -4 -5 -5 -5 -6 -6
9 9 8 8 8 7 7 7 7 6 6 6 5 5 4 4 4 3 2 2 1 1 1 1 0 -0 -1 -1 -2 -2 -3 -3 -3 -3 -4 -4 -4 -4 -5 -5 -6 -6 -6
9 8 8 7 7 7 6 6 6 5 5 5 4 4 4 3 3 2 2 1 1 0 0 -0 -1 -1 -2 -2 -3 -3 -3 -4 -4 -4 -4 -5 -5 -5 -5 -5 -6 -6 -6
8 8 7 7 6 6 6 5 5 5 4 4 4 3 3 2 2 1 1 0 -0 -1 -1 -1 -2 -2 -3 -3 -4 -4 -4 -4 -5 -5 -5 -5 -5 -5 -6 -6 -6 -6 -7
8 7 7 6 6 5 5 5 4 4 3 3 3 2 2 2 1 1 -0 -1 -1 -1 -2 -2 -3 -3 -3 -4 -4 -4 -5 -5 -5 -6 -6 -6 -6 -6 -6 -6 -7 -7 -7
7 7 6 6 5 5 4 4 3 3 3 2 2 2 1 1 1 -0 -1 -1 -2 -2 -2 -3 -3 -4 -4 -4 -5 -5 -5 -5 -6 -6 -6 -6 -6 -7 -7 -7 -7 -7 -7
7 6 6 5 5 4 4 3 3 2 2 1 1 1 0 0 -0 -1 -2 -2 -2 -3 -3 -4 -4 -4 -5 -5 -5 -5 -6 -6 -6 -6 -7 -7 -7 -7 -7 -7 -8 -8 -8
6 5 5 4 4 3 3 2 2 2 1 1 0 -0 -0 -1 -1 -2 -2 -3 -3 -4 -4 -5 -5 -5 -5 -6 -6 -6 -6 -7 -7 -7 -7 -7 -7 -8 -8 -8 -8 -8 -9
5 5 4 4 3 3 2 2 1 1 1 0 -0 -1 -1 -2 -2 -3 -3 -3 -4 -4 -5 -5 -5 -6 -6 -6 -7 -7 -7 -7 -7 -8 -8 -8 -8 -8 -8 -8 -8 -9 -9
4 4 3 3 2 2 1 1 0 -0 -0 -1 -1 -1 -2 -3 -3 -3 -4 -4 -5 -5 -5 -6 -6 -6 -7 -7 -7 -7 -8 -8 -8 -8 -8 -8 -8 -9 -9 -9 -9 -9 -9
3 3 2 2 1 1 0 -0 -1 -1 -1 -2 -2 -2 -3 -4 -4 -4 -5 -5 -5 -6 -6 -6 -7 -7 -7 -8 -8 -8 -8 -8 -9 -9 -9 -9 -9 -9 -9 -9 -9 -9 -9
2 2 1 1 0 -0 -1 -1 -2 -2 -2 -3 -3 -3 -4 -5 -5 -5 -6 -6 -6 -7 -7 -7 -7 -8 -8 -8 -9 -9 -9 -9 -9 -9 -9 -9 -9 -9 -9 -10 -10 -10 -10
1 1 0 -0 -1 -1 -2 -2 -3 -3 -4 -4 -4 -5 -5 -6 -6 -6 -6 -7 -7 -7 -8 -8 -8 -8 -9 -9 -9 -9 -9 -10 -10 -10 -10 -10 -10 -10 -10 -10 -10 -10 -10
0 -0 -1 -1 -2 -2 -3 -3 -4 -4 -5 -5 -5 -5 -6 -6 -6 -7 -7 -7 -7 -8 -8 -9 -9 -9 -9 -9 -10 -10 -10 -10 -10 -10 -10 -10 -10 -10 -10 -10 -10 -10 -10
-1 -1 -2 -2 -3 -3 -4 -4 -5 -5 -6 -6 -6 -6 -6 -7 -7 -7 -8 -8 -8 -8 -9 -9 -9 -10 -10 -10 -10 -10 -10 -10 -10 -10 -10 -11 -11 -11 -11 -11 -10 -10 -10
-2 -2 -3 -3 -4 -4 -5 -5 -6 -6 -6 -7 -7 -7 -7 -7 -8 -8 -8 -9 -9 -9 -9 -10 -10 -10 -10 -10 -10 -11 -11 -11 -11 -11 -11 -11 -11 -11 -11 -11 -11 -11 -11
-3 -3 -4 -4 -5 -5 -6 -6 -6 -7 -7 -7 -7 -8 -8 -8 -8 -9 -9 -9 -9 -10 -10 -10 -10 -11 -11 -11 -11 -11 -11 -11 -11 -11 -11 -11 -11 -11 -11 -11 -11 -11 -11
-4 -4 -5 -5 -6 -6 -6 -7 -7 -7 -7 -8 -8 -8 -9 -9 -9 -9 -9 -10 -10 -10 -11 -11 -11 -11 -11 -11 -11 -11 -11 -11 -11 -11 -11 -11 -11 -11 -11 -11 -11 -11 -11

GEFSGL_850_meantemp_132.txt.gz
Temperature
14 13 13 12 12 11 11 11 10 10 10 10 10 9 9 9 9 9 8 8 8 8 7 7 7 6 6 5 5 4 3 2 2 3 3 2 2 2 1 1 0 -0 -0
14 13 13 12 11 11 11 10 10 10 10 9 9 9 9 9 9 8 8 8 8 7 7 7 6 6 5 5 4 4 3 3 2 2 2 2 1 1 1 0 -0 -1 -1
13 13 12 11 11 11 11 10 10 10 9 9 9 9 9 9 8 8 8 8 7 7 7 6 6 5 5 4 4 3 3 2 2 1 1 1 1 0 -0 -0 -1 -1 -1
13 12 12 11 11 11 10 10 10 9 9 9 9 9 8 8 8 8 7 7 7 7 6 6 5 5 4 4 3 3 2 2 1 1 0 0 0 -0 -1 -1 -2 -2 -2
12 12 12 11 11 10 10 10 9 9 9 9 8 8 8 8 8 7 7 7 6 6 6 5 5 4 4 3 2 2 1 1 1 0 -0 -0 -1 -1 -2 -2 -3 -3 -3
12 12 11 11 10 10 10 9 9 9 9 8 8 8 8 7 7 7 6 6 6 5 5 5 4 3 3 2 2 1 1 0 -0 -1 -1 -1 -1 -2 -2 -3 -3 -4 -4
12 12 11 10 10 10 9 9 9 8 8 8 8 7 7 7 7 6 6 5 5 5 4 4 3 3 2 2 1 1 0 -0 -1 -1 -2 -2 -2 -3 -3 -4 -4 -4 -4
12 11 11 10 9 9 9 8 8 8 8 8 7 7 7 6 6 6 5 5 4 4 3 3 3 2 1 1 0 0 -0 -0 -1 -1 -2 -2 -3 -3 -4 -4 -5 -5 -5
11 11 10 10 9 9 8 8 8 7 7 7 7 6 6 6 5 5 4 4 3 3 3 2 2 1 1 -0 -0 -1 -1 -1 -1 -2 -2 -3 -3 -4 -4 -5 -5 -5 -5
11 11 10 9 9 8 8 7 7 7 7 6 6 6 5 5 5 4 3 3 3 2 2 1 1 0 -0 -1 -1 -2 -2 -2 -2 -3 -3 -3 -4 -4 -5 -5 -5 -6 -6
11 10 9 9 8 8 7 7 6 6 6 5 5 5 5 4 4 3 3 2 2 1 1 1 0 -0 -1 -1 -2 -2 -3 -3 -3 -4 -4 -4 -4 -5 -5 -5 -6 -6 -6
10 9 9 8 8 7 7 6 6 5 5 5 4 4 4 3 3 2 2 1 1 0 0 -0 -1 -1 -2 -2 -3 -3 -3 -4 -4 -4 -5 -5 -5 -5 -6 -6 -6 -7 -7
9 9 8 8 7 7 6 6 5 5 4 4 4 3 3 3 2 2 1 1 0 -0 -1 -1 -2 -2 -3 -3 -3 -4 -4 -5 -5 -5 -5 -6 -6 -6 -6 -6 -7 -7 -7
9 8 7 7 7 6 5 5 4 4 4 3 3 3 2 2 1 1 0 -0 -1 -1 -2 -2 -2 -3 -3 -4 -4 -4 -5 -5 -6 -6 -6 -6 -7 -7 -7 -7 -7 -7 -7
8 7 7 6 6 5 5 4 4 3 3 2 2 2 1 1 1 -0 -1 -1 -2 -2 -3 -3 -3 -3 -4 -4 -5 -5 -6 -6 -6 -7 -7 -7 -7 -7 -7 -8 -8 -8 -8
7 7 6 6 5 5 4 4 3 3 2 2 1 1 0 -0 -1 -1 -2 -2 -3 -3 -3 -4 -4 -4 -5 -5 -6 -6 -6 -7 -7 -7 -8 -8 -8 -8 -8 -8 -8 -8 -8
7 6 6 5 4 4 3 3 2 2 2 1 1 0 -0 -1 -1 -2 -2 -3 -3 -4 -4 -4 -5 -5 -5 -6 -6 -7 -7 -7 -8 -8 -8 -8 -8 -8 -9 -9 -9 -9 -9
6 5 5 4 4 3 3 2 2 1 1 1 0 -0 -1 -1 -2 -2 -3 -4 -4 -4 -5 -5 -5 -6 -6 -7 -7 -8 -8 -8 -8 -8 -8 -9 -9 -9 -9 -9 -9 -9 -9
5 4 4 3 3 2 2 1 1 0 -0 -0 -1 -1 -1 -2 -3 -3 -4 -4 -5 -5 -5 -6 -6 -7 -7 -7 -8 -8 -8 -9 -9 -9 -9 -9 -9 -9 -9 -9 -9 -9 -9
4 3 3 2 2 1 1 0 -0 -1 -1 -1 -2 -2 -3 -3 -3 -4 -4 -5 -5 -6 -6 -6 -7 -7 -8 -8 -8 -9 -9 -9 -9 -9 -9 -10 -10 -10 -10 -10 -10 -10 -10
3 3 2 2 1 1 0 -0 -1 -1 -2 -2 -3 -3 -4 -4 -5 -5 -5 -6 -6 -6 -7 -7 -7 -8 -8 -8 -9 -9 -9 -10 -10 -10 -10 -10 -10 -10 -10 -10 -10 -10 -10
2 2 1 1 0 -0 -1 -1 -2 -2 -3 -3 -3 -4 -4 -5 -5 -6 -6 -6 -7 -7 -7 -8 -8 -8 -9 -9 -9 -10 -10 -10 -10 -10 -10 -10 -10 -10 -10 -10 -10 -10 -10
1 1 0 -0 -1 -1 -2 -2 -3 -3 -4 -4 -4 -5 -5 -5 -6 -6 -6 -7 -7 -7 -8 -8 -9 -9 -9 -10 -10 -10 -10 -10 -10 -10 -10 -10 -10 -10 -10 -10 -10 -10 -10
0 -0 -1 -1 -2 -2 -3 -3 -4 -4 -4 -5 -5 -5 -6 -6 -6 -7 -7 -7 -8 -8 -8 -9 -9 -9 -10 -10 -10 -10 -10 -11 -11 -11 -11 -11 -11 -11 -11 -10 -10 -11 -11
-1 -1 -2 -2 -3 -3 -4 -4 -4 -5 -5 -5 -6 -6 -6 -6 -7 -7 -7 -8 -8 -8 -9 -9 -9 -10 -10 -10 -10 -10 -11 -11 -11 -11 -11 -11 -11 -11 -11 -11 -11 -11 -11
-2 -3 -3 -3 -4 -4 -5 -5 -5 -5 -6 -6 -6 -6 -7 -7 -7 -7 -8 -8 -8 -9 -9 -9 -10 -10 -10 -10 -10 -11 -11 -11 -11 -11 -11 -11 -11 -11 -11 -11 -11 -11 -11

GEFSGL_850_meantemp_138.txt.gz
Temperature
15 15 14 14 13 13 13 12 12 12 11 11 10 10 10 9 9 9 9 8 8 8 8 7 7 7 6 6 5 5 4 4 3 4 3 3 3 2 2 2 1 1 1
15 14 14 14 13 13 12 12 12 11 11 10 10 10 9 9 9 9 8 8 8 8 7 7 7 6 6 6 5 5 4 3 3 3 3 2 2 2 1 1 1 0 0
15 14 14 13 13 12 12 12 11 11 11 10 10 10 9 9 9 8 8 8 8 7 7 7 6 6 6 5 5 4 4 3 2 2 2 2 1 1 1 0 0 -0 -0
14 14 13 13 12 12 12 11 11 11 10 10 10 9 9 9 8 8 8 8 7 7 7 6 6 6 5 5 4 4 3 2 2 1 1 1 1 0 -0 -0 -1 -1 -1
14 14 13 13 12 11 11 11 11 10 10 10 9 9 9 9 8 8 8 7 7 7 6 6 6 5 5 4 4 3 2 2 1 1 0 0 -0 -0 -1 -1 -2 -2 -2
14 13 13 12 12 11 11 10 10 10 10 9 9 9 9 8 8 8 7 7 7 6 6 6 5 5 4 4 3 2 2 1 1 0 -0 -1 -1 -1 -2 -2 -3 -3 -3
14 13 13 12 11 11 10 10 10 9 9 9 9 8 8 8 8 7 7 7 6 6 5 5 5 4 3 3 2 2 1 1 0 -0 -1 -1 -2 -2 -3 -3 -3 -4 -4
13 13 12 11 11 10 10 10 9 9 9 8 8 8 8 8 7 7 6 6 6 5 5 4 4 3 3 2 2 1 1 0 -0 -1 -1 -2 -2 -3 -3 -4 -4 -4 -4
13 13 12 11 11 10 10 9 9 8 8 8 8 8 7 7 7 6 6 5 5 5 4 4 3 3 2 1 1 1 0 -0 -1 -1 -2 -3 -3 -3 -4 -4 -5 -5 -5
13 12 12 11 10 10 9 9 8 8 8 8 7 7 7 6 6 5 5 4 4 4 3 3 2 2 1 1 0 -0 -1 -1 -2 -2 -2 -3 -3 -4 -4 -5 -5 -6 -6
13 12 11 11 10 9 9 8 8 8 7 7 7 6 6 6 5 5 4 4 3 3 3 2 2 1 0 -0 -1 -1 -1 -2 -3 -3 -3 -4 -4 -4 -5 -5 -5 -6 -6
12 11 11 10 10 9 8 8 8 7 7 6 6 5 5 5 4 4 3 3 2 2 2 1 1 0 -0 -1 -1 -2 -2 -3 -3 -3 -4 -4 -5 -5 -5 -6 -6 -6 -7
12 11 10 9 9 8 8 8 7 7 6 6 5 5 4 4 4 3 3 2 2 1 1 0 -0 -1 -1 -1 -2 -3 -3 -3 -4 -4 -4 -5 -5 -6 -6 -6 -6 -7 -7
11 10 9 9 8 8 7 7 6 6 5 5 5 4 4 3 3 3 2 2 1 1 0 -0 -1 -1 -2 -2 -3 -3 -4 -4 -4 -5 -5 -6 -6 -6 -7 -7 -7 -7 -7
10 10 9 8 8 7 7 6 6 5 5 4 4 4 3 3 2 2 1 1 0 -0 -1 -1 -1 -2 -2 -3 -3 -4 -4 -4 -5 -5 -6 -6 -7 -7 -7 -7 -8 -8 -8
10 9 8 8 7 6 6 5 5 4 4 3 3 3 2 2 1 1 1 0 -0 -1 -1 -2 -2 -3 -3 -4 -4 -4 -5 -5 -6 -6 -7 -7 -7 -8 -8 -8 -8 -8 -8
9 8 8 7 6 6 5 5 4 4 3 3 2 2 2 1 1 0 -0 -1 -1 -2 -2 -2 -3 -3 -4 -4 -5 -5 -6 -6 -6 -7 -7 -8 -8 -8 -8 -8 -9 -9 -9
8 7 7 6 6 5 5 4 4 3 3 2 2 1 1 0 0 -0 -1 -1 -2 -2 -3 -3 -4 -4 -5 -5 -5 -6 -6 -7 -7 -7 -8 -8 -8 -9 -9 -9 -9 -9 -9
7 6 6 5 5 4 4 3 3 2 2 2 1 1 0 -0 -1 -1 -2 -2 -2 -3 -3 -4 -4 -5 -5 -6 -6 -7 -7 -7 -7 -8 -8 -9 -9 -9 -9 -9 -9 -9 -10
6 5 5 5 4 4 3 3 2 2 1 1 0 -0 -1 -1 -1 -2 -2 -3 -3 -3 -4 -4 -5 -5 -6 -6 -7 -7 -7 -8 -8 -8 -9 -9 -9 -9 -10 -10 -10 -10 -10
5 5 4 4 3 3 2 2 1 1 0 -0 -0 -1 -1 -2 -2 -2 -3 -3 -4 -4 -5 -5 -6 -6 -6 -7 -7 -7 -8 -8 -8 -9 -9 -9 -9 -10 -10 -10 -10 -10 -10
4 4 3 3 2 2 1 1 0 -0 -0 -1 -1 -2 -2 -3 -3 -3 -4 -4 -4 -5 -5 -6 -6 -6 -7 -7 -7 -8 -8 -8 -9 -9 -9 -10 -10 -10 -10 -10 -10 -10 -10
3 3 3 2 1 1 0 -0 -0 -1 -1 -2 -2 -2 -3 -3 -4 -4 -4 -5 -5 -5 -6 -6 -6 -7 -7 -7 -8 -8 -8 -9 -9 -9 -10 -10 -10 -10 -10 -10 -10 -10 -10
2 2 2 1 1 0 -0 -1 -1 -2 -2 -2 -3 -3 -4 -4 -4 -5 -5 -5 -5 -6 -6 -6 -7 -7 -7 -8 -8 -8 -9 -9 -9 -10 -10 -10 -10 -10 -10 -10 -10 -10 -10
2 1 1 0 -0 -1 -1 -1 -2 -2 -3 -3 -3 -4 -4 -5 -5 -5 -5 -6 -6 -6 -6 -7 -7 -8 -8 -8 -8 -9 -9 -9 -10 -10 -10 -10 -10 -10 -11 -11 -10 -10 -10
1 0 -0 -1 -1 -1 -2 -2 -3 -3 -4 -4 -4 -4 -5 -5 -5 -6 -6 -6 -6 -7 -7 -7 -7 -8 -8 -8 -9 -9 -9 -9 -10 -10 -10 -11 -11 -11 -11 -11 -11 -11 -11

GEFSGL_850_meantemp_144.txt.gz
Temperature
15 15 15 14 14 13 13 13 12 12 12 12 12 11 11 10 10 10 9 9 9 9 8 8 8 8 7 7 7 6 6 5 5 5 4 4 4 3 3 3 2 2 2
16 15 15 14 14 13 13 13 12 12 12 12 12 11 11 10 10 9 9 9 9 8 8 8 8 8 7 7 6 6 5 5 4 4 4 3 3 3 2 2 2 1 1
15 15 14 14 13 13 13 12 12 12 12 11 11 11 10 10 10 9 9 9 8 8 8 8 8 7 7 6 6 5 5 5 4 3 3 3 2 2 2 1 1 1 1
15 15 15 14 14 13 12 12 12 12 11 11 11 11 10 10 10 9 9 8 8 8 8 7 7 7 6 6 5 5 4 4 3 3 2 2 2 1 1 1 0 -0 -0
15 15 15 14 13 13 12 12 11 11 11 11 10 10 10 10 9 9 9 8 8 8 7 7 7 6 6 5 5 4 4 3 3 2 2 1 1 1 0 -0 -1 -1 -1
15 15 14 14 13 12 12 11 11 11 10 10 10 9 9 9 9 9 8 8 8 7 7 7 6 6 5 5 4 4 3 3 2 2 1 1 0 -0 -1 -1 -2 -2 -3
15 14 14 13 13 12 11 11 11 10 10 10 9 9 9 9 8 8 8 7 7 7 6 6 6 5 5 4 4 3 3 2 2 1 0 0 -1 -1 -1 -2 -2 -3 -3
15 14 14 13 12 12 11 10 10 10 9 9 9 9 8 8 8 8 7 7 7 6 6 5 5 5 4 4 3 3 2 2 1 1 0 -1 -1 -2 -2 -2 -3 -3 -4
14 14 13 13 12 11 11 10 10 9 9 9 9 8 8 8 7 7 7 6 6 5 5 5 4 4 4 3 3 2 2 1 1 0 -0 -1 -1 -2 -2 -3 -4 -4 -5
14 14 13 12 12 11 11 10 10 9 9 8 8 8 7 7 7 6 6 6 5 5 4 4 4 3 3 2 2 1 1 0 -0 -1 -1 -1 -2 -2 -3 -4 -4 -5 -5
14 13 12 12 11 11 10 10 9 9 8 8 7 7 7 6 6 6 5 5 4 4 4 3 3 3 2 2 1 1 0 -0 -1 -1 -2 -2 -3 -3 -3 -4 -4 -5 -6
13 13 12 11 11 10 9 9 9 8 8 7 7 6 6 6 5 5 5 4 4 3 3 3 2 2 1 1 0 -0 -1 -1 -2 -2 -3 -3 -3 -4 -4 -5 -5 -5 -6
13 12 11 11 10 10 9 9 8 8 7 7 6 6 6 5 5 4 4 4 3 3 2 2 2 1 1 0 -0 -1 -1 -2 -2 -3 -3 -4 -4 -5 -5 -5 -6 -6 -6
12 11 11 10 10 9 8 8 8 7 7 6 6 6 5 5 4 4 3 3 3 2 2 1 1 0 -0 -1 -1 -2 -2 -3 -3 -4 -4 -4 -5 -5 -6 -6 -6 -7 -7
12 11 10 10 9 8 8 7 7 7 7 6 6 6 5 4 4 3 3 2 2 1 1 0 -0 -0 -1 -1 -2 -2 -3 -3 -4 -4 -5 -5 -5 -6 -6 -7 -7 -7 -8
11 10 10 9 8 8 7 7 6 6 6 5 5 5 4 4 3 3 2 2 1 1 0 -0 -1 -1 -2 -2 -3 -3 -4 -4 -5 -5 -5 -6 -6 -7 -7 -7 -8 -8 -8
11 10 10 9 8 7 7 7 6 5 5 4 4 4 3 3 3 2 2 1 0 -0 -1 -1 -1 -2 -2 -3 -3 -4 -4 -5 -5 -6 -6 -6 -7 -7 -7 -8 -8 -8 -9
10 10 9 8 8 7 6 6 6 5 4 4 3 3 2 2 2 1 1 0 -0 -1 -1 -1 -2 -2 -3 -3 -4 -4 -5 -5 -6 -6 -6 -7 -7 -8 -8 -8 -8 -9 -9
9 9 8 8 7 6 6 5 5 4 4 3 2 2 2 1 1 0 0 -0 -1 -1 -1 -2 -2 -3 -3 -4 -4 -5 -5 -6 -6 -6 -7 -7 -8 -8 -8 -9 -9 -9 -9
8 8 8 7 6 5 5 4 4 3 3 2 2 2 1 1 0 -0 -1 -1 -1 -2 -2 -2 -3 -3 -4 -4 -5 -5 -6 -6 -6 -7 -7 -7 -8 -8 -9 -9 -9 -9 -9
7 7 6 6 5 5 4 4 3 3 2 2 1 1 1 0 -0 -1 -1 -1 -2 -2 -3 -3 -4 -4 -4 -5 -5 -6 -6 -6 -7 -7 -8 -8 -8 -8 -9 -9 -9 -10 -10
7 6 5 5 5 4 4 3 3 2 2 1 1 0 -0 -0 -1 -1 -2 -2 -3 -3 -3 -4 -4 -4 -5 -5 -5 -6 -6 -7 -7 -7 -8 -8 -8 -9 -9 -9 -10 -10 -10
6 5 5 4 4 3 3 2 2 1 1 1 0 -0 -1 -1 -2 -2 -2 -3 -3 -3 -4 -4 -4 -5 -5 -5 -6 -6 -7 -7 -7 -8 -8 -8 -9 -9 -9 -10 -10 -10 -10
5 4 4 3 3 2 2 2 1 1 0 0 -0 -1 -1 -2 -2 -3 -3 -3 -4 -4 -4 -4 -5 -5 -5 -6 -6 -6 -7 -7 -8 -8 -8 -9 -9 -9 -10 -10 -10 -10 -10
4 3 3 3 2 2 1 1 0 0 -0 -1 -1 -1 -2 -2 -3 -3 -3 -4 -4 -4 -5 -5 -5 -5 -6 -6 -6 -7 -7 -8 -8 -8 -9 -9 -9 -10 -10 -10 -10 -10 -10
3 2 2 2 1 1 0 0 -0 -1 -1 -1 -2 -2 -2 -3 -3 -4 -4 -4 -5 -5 -5 -5 -6 -6 -6 -6 -7 -7 -7 -8 -8 -9 -9 -9 -10 -10 -10 -10 -10 -10 -10

GEFSGL_850_meantemp_150.txt.gz
Temperature
16 15 14 14 14 13 13 12 12 12 12 12 12 12 11 11 10 10 10 10 9 9 9 9 8 8 8 8 8 7 7 6 6 6 6 5 5 4 4 3 3 3 3
16 15 14 14 13 13 12 12 12 12 12 12 12 11 11 11 10 10 10 10 9 9 9 9 8 8 8 8 7 7 6 6 5 5 5 5 4 4 3 3 3 2 2
15 15 14 14 13 13 12 12 12 12 12 11 11 11 11 10 10 10 10 9 9 9 9 8 8 8 8 7 7 6 6 6 5 4 4 4 4 3 3 2 2 2 1
15 15 14 14 13 13 12 12 12 12 11 11 11 11 11 10 10 10 9 9 9 8 8 8 8 7 7 7 6 6 6 5 5 4 4 4 3 3 2 2 1 1 1
15 15 14 14 13 13 12 12 12 12 11 11 11 11 10 10 10 9 9 9 8 8 8 8 7 7 7 7 6 6 5 5 4 4 3 3 3 2 1 1 0 0 -0
15 14 14 13 13 13 12 12 12 12 11 11 11 10 10 10 9 9 9 9 8 8 8 7 7 7 6 6 6 5 5 4 4 3 3 2 2 1 1 -0 -1 -1 -1
14 14 14 13 13 13 12 12 12 12 11 11 10 10 9 9 9 9 8 8 8 8 7 7 7 6 6 6 5 5 4 4 3 3 2 2 1 0 -0 -1 -1 -2 -2
14 14 13 13 13 13 12 12 12 11 11 10 10 9 9 9 9 8 8 8 7 7 7 7 6 6 5 5 5 4 4 3 3 2 1 1 0 -0 -1 -1 -2 -2 -2
13 14 13 13 13 12 12 12 11 11 10 10 9 9 9 8 8 8 8 7 7 7 6 6 6 5 5 4 4 4 3 3 2 1 1 0 -0 -1 -1 -2 -2 -3 -3
13 13 13 13 13 12 12 12 11 10 10 9 9 8 8 8 7 7 7 7 6 6 6 5 5 5 4 4 3 3 2 2 2 1 1 -0 -1 -1 -2 -2 -3 -4 -4
13 13 12 12 12 12 12 11 10 10 9 9 8 8 7 7 7 7 6 6 6 6 5 5 5 4 4 3 3 2 2 1 1 0 -0 -1 -1 -2 -2 -3 -4 -4 -5
12 12 12 12 12 11 11 11 10 9 9 8 8 7 7 7 7 6 6 6 5 5 5 4 4 3 3 2 2 1 1 0 -0 -1 -1 -2 -2 -3 -3 -4 -4 -5 -5
12 11 12 11 11 11 10 10 9 9 8 8 7 7 7 7 6 6 6 5 5 4 4 3 3 3 2 2 1 1 0 -0 -1 -1 -2 -2 -3 -3 -4 -4 -4 -5 -5
11 11 11 11 10 10 10 9 9 9 9 8 7 7 6 6 6 5 5 5 4 4 3 3 2 2 2 1 1 0 -0 -1 -2 -2 -3 -3 -4 -4 -4 -5 -5 -5 -5
10 10 10 10 10 9 9 9 9 9 9 9 8 7 7 6 6 5 5 4 4 3 3 2 2 1 1 1 -0 -1 -1 -2 -2 -3 -3 -4 -4 -4 -5 -5 -6 -6 -6
10 10 10 9 9 9 8 8 7 8 7 7 7 7 6 6 5 5 4 4 3 2 2 2 1 1 0 -0 -1 -1 -2 -2 -3 -3 -4 -4 -5 -5 -5 -6 -6 -7 -7
10 10 9 9 9 9 8 8 7 6 6 6 6 6 5 5 5 4 4 3 2 2 2 1 1 0 -1 -1 -1 -2 -2 -3 -3 -4 -4 -5 -5 -6 -6 -6 -7 -7 -7
9 9 9 9 9 8 8 8 7 7 6 5 5 5 4 4 4 3 3 3 2 1 1 1 -0 -1 -1 -2 -2 -2 -3 -3 -4 -4 -5 -5 -6 -6 -6 -7 -7 -8 -8
8 8 8 8 8 8 7 7 7 6 6 6 5 4 3 3 3 3 2 2 2 1 1 0 -1 -1 -1 -2 -2 -3 -3 -4 -4 -4 -5 -5 -6 -6 -7 -7 -8 -8 -8
8 8 8 7 7 7 6 6 6 6 5 5 5 4 3 3 2 2 2 2 1 1 0 -0 -1 -1 -2 -2 -3 -3 -4 -4 -4 -5 -5 -6 -6 -7 -7 -8 -8 -8 -8
7 6 6 6 6 6 6 6 6 5 5 5 4 4 3 3 3 2 2 1 1 0 -0 -1 -1 -2 -2 -3 -3 -3 -4 -4 -5 -5 -6 -6 -7 -7 -7 -8 -8 -8 -9
6 6 6 6 6 6 6 6 5 5 5 4 3 3 2 2 2 1 1 1 0 -0 -1 -1 -2 -2 -3 -3 -4 -4 -4 -5 -5 -6 -6 -7 -7 -7 -8 -8 -8 -9 -9
5 5 5 5 5 5 5 5 4 4 4 3 3 2 2 1 1 1 1 0 -0 -1 -1 -2 -2 -3 -3 -4 -4 -4 -5 -5 -6 -6 -6 -7 -7 -8 -8 -8 -9 -9 -9
5 5 5 5 5 4 4 4 4 3 3 3 2 2 1 1 1 0 -0 -1 -1 -1 -2 -2 -3 -3 -4 -4 -4 -5 -5 -5 -6 -6 -7 -7 -7 -8 -8 -9 -9 -9 -9
4 4 4 4 4 4 3 3 3 3 2 2 2 1 1 0 0 -0 -1 -1 -2 -2 -2 -3 -3 -4 -4 -4 -5 -5 -5 -6 -6 -7 -7 -7 -8 -8 -9 -9 -9 -9 -9
4 4 4 3 3 3 3 3 2 2 2 1 1 1 0 -0 -1 -1 -1 -2 -2 -2 -3 -3 -4 -4 -4 -5 -5 -6 -6 -6 -7 -7 -7 -8 -8 -8 -9 -9 -9 -9 -9

GEFSGL_850_meantemp_156.txt.gz
Temperature
17 17 17 16 16 15 14 14 14 14 13 13 12 12 11 11 10 10 10 10 9 9 9 9 9 8 8 8 8 7 7 7 6 6 6 6 5 5 5 4 4 3 3
17 17 17 16 16 15 15 14 14 13 13 13 12 12 11 11 10 10 10 10 9 9 9 9 8 8 8 8 7 7 7 6 6 5 5 5 5 4 4 4 3 3 3
17 16 16 15 15 15 15 14 13 13 13 12 12 11 11 11 10 10 10 10 9 9 9 9 8 8 8 7 7 7 7 6 5 5 5 5 5 4 3 3 3 2 2
16 16 16 15 15 15 14 14 13 13 12 12 12 11 11 11 10 10 10 9 9 9 9 8 8 8 7 7 7 6 6 6 5 5 4 4 4 3 3 3 2 2 2
16 15 15 15 15 14 14 13 13 12 12 12 11 11 11 10 10 10 10 9 9 9 8 8 8 7 7 7 6 6 6 5 5 4 4 4 3 3 2 2 1 1 1
15 15 15 15 14 14 14 13 13 12 12 11 11 11 10 10 10 10 9 9 9 8 8 8 7 7 7 6 6 6 5 5 4 4 3 3 3 2 1 1 0 -0 -0
15 15 14 14 14 14 13 13 12 12 12 11 11 10 10 10 10 9 9 9 8 8 8 7 7 7 6 6 6 5 5 4 4 3 3 2 2 1 1 0 -0 -1 -1
14 14 14 14 13 13 13 12 12 12 11 11 11 11 10 10 10 9 9 8 8 8 8 7 7 6 6 5 5 5 4 4 3 3 2 2 1 0 -0 -1 -1 -1 -1
13 13 13 13 13 13 12 12 12 11 11 11 11 10 10 10 9 9 8 8 8 7 7 7 6 6 5 5 5 4 4 3 3 2 2 1 1 -0 -1 -1 -1 -2 -2
13 13 13 13 13 12 12 12 11 11 11 11 10 10 10 9 9 9 8 8 8 7 7 6 6 5 5 4 4 3 3 3 2 2 1 1 0 -1 -1 -2 -2 -3 -4
12 12 12 12 12 12 12 11 11 11 10 10 10 10 9 9 8 8 8 8 7 7 6 6 5 5 4 4 3 3 2 2 2 1 1 0 -0 -1 -2 -2 -3 -3 -4
11 11 11 11 11 11 11 11 10 10 10 10 9 9 9 8 8 8 7 7 7 6 6 5 5 4 4 3 3 2 2 1 1 1 0 -0 -1 -1 -2 -3 -3 -4 -4
11 11 11 10 10 10 10 10 10 10 9 9 9 8 8 8 7 7 7 6 6 6 5 5 4 4 3 3 2 2 1 1 0 -0 -1 -1 -2 -2 -3 -3 -3 -4 -4
10 10 10 10 10 9 9 9 9 9 9 9 8 8 8 7 7 7 6 6 5 5 5 4 4 3 3 2 2 1 1 0 -0 -1 -1 -2 -2 -3 -3 -4 -4 -4 -4
9 9 9 9 9 9 9 9 9 9 9 9 9 8 8 7 7 6 6 6 5 5 4 4 3 3 2 2 1 1 0 -0 -1 -1 -2 -2 -3 -3 -4 -4 -4 -5 -5
8 8 8 8 8 8 8 8 8 8 8 8 8 7 7 7 6 6 5 5 5 4 4 3 3 2 2 1 1 0 -0 -1 -1 -2 -2 -3 -3 -4 -4 -5 -5 -5 -6
8 8 8 7 7 7 7 7 7 7 7 7 7 6 6 6 5 5 5 4 4 4 3 3 2 2 1 1 0 -0 -1 -1 -2 -2 -3 -3 -4 -4 -5 -5 -5 -6 -6
7 7 7 7 7 7 6 6 6 6 6 6 6 5 5 5 5 5 4 4 3 3 3 2 2 1 1 0 -0 -1 -1 -2 -2 -3 -3 -4 -4 -5 -5 -5 -6 -6 -7
6 7 6 6 6 6 6 5 6 6 6 5 5 5 5 4 4 4 4 3 3 3 2 2 1 1 0 -0 -1 -1 -2 -2 -3 -3 -4 -4 -4 -5 -5 -6 -6 -6 -7
6 6 6 6 5 5 5 5 5 5 5 5 5 5 4 4 4 3 3 3 3 2 2 1 1 0 -0 -1 -1 -2 -2 -3 -3 -3 -4 -4 -5 -5 -6 -6 -6 -7 -7
5 5 5 5 5 5 5 4 5 5 5 5 5 4 4 4 4 3 3 3 2 2 1 1 0 -0 -1 -1 -2 -2 -2 -3 -3 -4 -4 -5 -5 -6 -6 -6 -7 -7 -7
4 4 4 4 4 4 4 4 4 4 4 4 4 4 3 3 3 3 2 2 2 1 1 0 -0 -1 -1 -1 -2 -2 -3 -3 -4 -4 -5 -5 -5 -6 -6 -6 -7 -7 -7
4 4 4 3 3 3 3 3 3 3 4 4 4 3 3 3 2 2 2 2 1 1 0 -0 -0 -1 -1 -2 -2 -3 -3 -3 -4 -4 -5 -5 -6 -6 -6 -7 -7 -7 -7
3 3 3 3 3 3 3 3 3 3 3 3 3 3 2 2 2 2 1 1 1 0 -0 -0 -1 -1 -2 -2 -2 -3 -3 -4 -4 -5 -5 -5 -6 -6 -7 -7 -7 -8 -8
2 2 3 3 2 2 2 2 3 3 3 3 3 2 2 2 1 1 1 0 0 -0 -1 -1 -1 -2 -2 -2 -3 -3 -4 -4 -4 -5 -5 -6 -6 -6 -7 -7 -7 -8 -8
2 2 2 2 2 2 2 2 3 3 3 2 2 2 1 1 1 1 0 -0 -1 -1 -1 -1 -2 -2 -2 -3 -3 -3 -4 -4 -5 -5 -5 -6 -6 -7 -7 -7 -8 -8 -8

GEFSGL_850_meantemp_162.txt.gz
Temperature
16 16 16 16 16 15 15 15 14 14 14 14 14 13 13 12 11 11 10 10 10 9 9 9 9 9 8 8 8 8 7 7 6 7 7 6 6 6 5 5 5 4 4
16 16 16 16 15 15 15 15 14 14 14 14 13 13 12 12 11 11 10 10 10 10 9 9 9 9 8 8 8 7 7 7 6 6 6 6 5 5 5 4 4 4 3
15 15 15 15 15 15 15 15 14 14 13 13 13 13 12 12 11 11 10 10 10 10 9 9 9 8 8 8 8 7 7 7 6 6 6 5 5 5 4 4 4 3 3
15 15 15 15 15 15 15 14 14 14 13 13 13 12 12 12 11 11 10 10 10 9 9 9 9 8 8 8 7 7 7 6 6 5 5 5 4 4 4 3 3 3 3
14 15 15 15 15 14 14 14 13 13 13 13 12 12 12 11 11 11 10 10 10 9 9 9 8 8 8 7 7 7 6 6 5 5 4 4 4 3 3 3 2 2 2
14 14 14 14 14 14 14 13 13 13 12 12 12 12 11 11 11 10 10 10 9 9 9 9 8 8 8 7 7 6 6 5 5 4 4 3 3 3 2 2 1 1 1
13 14 14 14 13 13 13 13 12 12 12 12 12 11 11 11 11 10 10 9 9 9 9 8 8 8 7 7 7 6 6 5 4 4 4 3 3 2 2 1 1 0 -0
13 13 13 13 13 13 12 12 12 12 12 12 11 11 11 10 10 10 10 9 9 8 8 8 8 7 7 7 6 6 5 5 4 4 3 3 2 2 1 1 -0 -0 -0
12 12 12 12 12 12 12 12 12 12 11 11 11 11 10 10 10 10 9 9 8 8 8 8 7 7 7 6 6 5 5 4 4 3 3 2 2 1 1 0 -0 -1 -1
11 12 12 12 12 12 12 12 12 11 11 11 11 10 10 10 10 9 9 9 8 8 8 7 7 6 6 6 5 5 4 4 3 3 2 2 1 1 0 -0 -1 -2 -2
10 11 11 11 11 11 11 11 11 11 10 10 10 10 10 9 9 9 9 9 8 8 7 7 7 6 6 5 5 4 4 3 3 2 2 1 1 0 -0 -1 -2 -2 -3
10 10 10 10 10 10 10 10 10 10 10 10 9 9 9 9 9 9 9 8 8 8 7 7 6 6 5 5 4 4 3 3 2 2 1 1 0 -0 -1 -1 -2 -3 -3
9 9 10 10 10 10 10 10 9 9 9 9 9 9 9 9 9 9 8 8 7 7 7 6 6 5 5 4 4 3 3 2 2 2 1 0 -0 -1 -1 -2 -2 -3 -3
8 8 9 9 9 9 9 9 9 9 9 9 9 9 8 8 8 8 8 7 7 6 6 6 5 5 4 4 3 3 2 2 1 1 0 -0 -1 -1 -2 -2 -3 -3 -3
7 7 8 8 8 8 8 8 8 8 9 9 9 9 9 8 8 8 8 7 7 7 6 5 5 4 4 3 3 2 2 1 1 0 -0 -1 -1 -2 -2 -3 -3 -3 -4
6 7 7 7 7 7 7 7 7 7 8 8 8 8 8 8 8 7 7 7 6 6 5 5 4 4 3 3 2 2 1 1 1 -0 -1 -1 -2 -2 -3 -3 -4 -4 -4
6 6 6 6 6 6 6 6 6 6 6 7 7 7 7 7 7 7 6 6 5 5 5 5 4 4 3 2 2 1 1 1 0 -1 -1 -2 -2 -3 -3 -3 -4 -4 -4
5 5 5 6 6 6 6 6 6 6 6 6 6 6 6 6 6 6 6 5 5 4 4 4 4 3 3 2 2 1 1 0 -0 -1 -2 -2 -2 -3 -3 -4 -4 -4 -5
4 4 5 5 5 5 5 5 5 5 5 5 5 5 5 5 5 5 5 5 5 5 4 4 3 3 2 2 1 1 0 -0 -1 -1 -2 -2 -3 -3 -4 -4 -4 -5 -5
4 4 4 4 4 4 4 4 4 4 4 4 5 5 5 5 4 4 4 4 5 4 4 3 3 2 2 1 1 0 0 -0 -1 -2 -2 -3 -3 -4 -4 -4 -5 -5 -5
3 3 3 3 3 4 4 4 4 4 4 4 4 4 4 4 4 4 4 4 4 4 3 3 3 2 1 1 0 0 -0 -1 -1 -2 -2 -3 -3 -4 -4 -5 -5 -5 -6
2 3 3 3 3 3 3 3 3 3 3 4 3 3 3 4 4 4 4 4 3 3 3 2 2 2 1 1 0 -0 -1 -1 -2 -2 -3 -3 -4 -4 -4 -5 -5 -5 -6
2 2 2 2 2 3 3 3 3 3 3 3 3 3 3 3 3 3 3 3 3 2 2 2 1 1 1 0 -0 -1 -1 -2 -2 -2 -3 -3 -4 -4 -5 -5 -5 -6 -6
1 2 2 2 2 2 2 2 2 2 2 3 3 3 3 3 3 3 3 2 2 2 2 1 1 1 0 -0 -1 -1 -2 -2 -2 -3 -3 -4 -4 -4 -5 -5 -5 -6 -6
1 1 1 1 1 2 2 2 2 2 2 2 2 2 2 2 2 2 2 2 2 1 1 1 1 0 -0 -1 -1 -2 -2 -2 -3 -3 -3 -4 -4 -5 -5 -5 -6 -6 -6
0 1 1 1 1 1 1 1 1 1 2 2 2 2 2 2 2 2 2 1 1 1 1 1 0 -0 -1 -1 -2 -2 -2 -3 -3 -3 -4 -4 -4 -5 -5 -6 -6 -6 -6

GEFSGL_850_meantemp_168.txt.gz
Temperature
13 13 13 13 13 13 13 13 13 13 12 12 13 12 12 12 11 11 11 10 10 10 10 10 9 9 9 9 9 8 8 7 7 7 7 7 7 6 6 6 5 5 5
12 13 13 13 13 13 13 13 13 12 12 12 12 12 12 12 11 11 11 11 10 10 10 10 9 9 9 9 8 8 8 7 7 7 7 6 6 6 6 5 5 5 5
12 12 12 13 12 12 13 13 13 13 12 12 12 12 12 12 12 11 11 11 10 10 10 10 9 9 9 9 8 8 8 7 7 6 6 6 6 6 5 5 5 4 4
11 12 12 12 13 13 13 13 13 13 12 12 12 12 12 12 11 11 11 11 10 10 10 9 9 9 9 9 8 8 7 7 7 6 6 6 5 5 5 4 4 4 4
10 11 11 12 12 12 12 12 12 12 12 12 12 12 11 11 11 11 11 11 10 10 10 9 9 9 9 8 8 8 7 7 7 6 6 5 5 4 4 4 3 3 3
10 10 11 11 11 12 12 12 12 12 12 12 12 11 11 11 11 11 11 10 10 10 10 9 9 9 9 8 8 7 7 7 6 6 5 5 4 4 4 3 2 2 2
9 10 10 11 11 11 12 12 12 12 12 12 11 11 11 11 11 11 10 10 10 10 9 9 9 9 8 8 8 7 7 6 6 5 5 4 4 3 3 3 2 2 1
9 9 10 10 11 11 11 11 11 11 11 11 11 11 11 11 11 11 10 10 9 9 9 9 9 8 8 8 7 7 7 6 6 5 4 4 3 3 3 2 2 1 1
8 9 9 9 10 10 11 11 11 11 11 11 11 11 11 11 11 10 10 9 9 9 9 8 8 8 8 7 7 7 6 6 5 5 4 4 3 3 2 2 1 1 0
7 8 8 9 9 10 10 10 11 11 11 10 10 10 10 10 10 10 9 9 9 8 8 8 8 7 7 7 6 6 6 5 5 4 4 3 3 2 2 1 1 0 -1
7 7 8 8 9 9 10 10 10 10 10 10 10 10 10 10 10 10 9 9 9 8 8 8 8 7 7 6 6 6 5 5 4 4 3 3 2 2 1 1 0 -0 -1
6 7 7 8 8 9 9 9 9 9 9 9 9 9 9 9 9 9 9 9 9 8 8 7 7 7 6 6 6 5 5 4 4 3 3 2 2 2 1 1 -0 -1 -1
6 6 7 7 7 8 8 8 8 8 8 8 8 9 9 9 9 9 8 8 8 8 7 7 7 6 6 5 5 5 4 4 3 3 2 2 1 1 1 0 -0 -1 -1
5 6 6 6 7 7 7 8 8 8 8 8 8 8 8 8 8 8 8 7 7 7 7 6 6 6 5 5 4 4 3 3 3 2 2 2 1 1 0 -0 -1 -1 -2
5 5 5 6 6 6 6 7 7 7 8 8 8 8 8 8 8 8 8 7 7 6 6 6 5 5 4 4 4 3 3 3 2 2 2 1 1 0 -0 -1 -1 -2 -2
4 4 5 5 5 5 6 6 6 6 7 7 7 8 8 8 7 7 7 7 7 6 6 5 5 5 4 4 4 3 3 2 2 2 1 1 0 -0 -1 -1 -2 -2 -2
3 4 4 4 5 5 5 5 5 6 6 6 6 7 7 7 7 7 7 6 6 6 5 5 5 5 4 4 4 3 3 2 2 1 1 0 -0 -1 -1 -2 -2 -2 -3
3 3 3 4 4 4 5 5 5 5 5 5 5 6 6 6 6 6 6 5 5 5 5 5 5 4 4 4 3 3 2 2 1 1 0 0 -0 -1 -1 -2 -2 -3 -3
2 2 3 3 3 4 4 4 4 4 4 4 5 5 5 5 5 5 5 5 5 4 4 4 4 4 4 3 3 2 2 2 1 1 0 -0 -1 -1 -2 -2 -3 -3 -3
1 2 2 3 3 3 3 3 4 4 4 4 4 4 4 4 4 4 4 4 4 4 4 4 4 4 3 3 2 2 2 1 1 0 -0 -1 -1 -1 -2 -2 -3 -3 -4
1 1 2 2 2 3 3 3 3 3 3 3 3 3 3 3 3 3 3 3 4 4 4 4 3 3 3 2 2 2 2 1 0 -0 -1 -1 -1 -2 -2 -3 -3 -3 -4
0 1 1 2 2 2 2 2 3 3 3 3 3 2 3 3 3 3 3 3 3 3 3 3 3 3 2 2 2 2 1 1 0 -0 -1 -1 -2 -2 -2 -3 -3 -4 -4
-0 0 1 1 1 2 2 2 2 2 2 2 2 2 2 2 2 2 2 2 2 2 2 2 2 2 2 2 1 1 1 0 0 -0 -1 -2 -2 -2 -3 -3 -3 -4 -4
-0 -0 0 1 1 1 1 1 2 2 2 2 2 2 2 2 2 2 2 2 2 2 2 2 2 2 2 1 1 1 0 -0 -0 -1 -1 -2 -2 -2 -3 -3 -4 -4 -4
-1 -1 -0 0 0 0 1 1 1 1 1 2 1 1 1 1 1 1 1 1 2 2 2 2 1 1 1 1 1 0 -0 -1 -1 -1 -2 -2 -2 -3 -3 -4 -4 -4 -4
-1 -1 -1 -0 -0 -0 0 0 0 1 1 1 1 1 1 1 1 1 1 1 1 1 1 1 1 1 1 0 0 -0 -0 -1 -1 -2 -2 -2 -3 -3 -3 -4 -4 -4 -5

GEFSGL_850_meantemp_174.txt.gz
Temperature
10 10 11 11 11 12 12 12 12 11 11 12 12 12 11 11 11 11 11 11 10 10 10 10 10 10 9 9 9 9 9 8 8 8 8 8 8 7 7 7 7 6 6
10 10 10 11 11 11 11 12 11 11 11 11 11 11 11 11 11 11 11 11 11 10 10 10 10 10 9 9 9 9 9 8 8 8 8 8 7 7 7 6 6 6 6
9 10 10 10 11 11 11 11 11 11 11 11 11 11 11 11 11 11 11 11 11 11 10 10 10 10 9 9 9 9 9 8 8 8 8 7 7 7 6 6 6 6 6
8 9 10 10 10 11 11 11 11 11 11 11 11 11 11 11 11 11 11 11 11 10 10 10 10 10 9 9 9 9 9 8 8 8 7 7 7 6 6 6 6 6 5
8 8 9 10 10 10 10 10 11 11 11 11 11 11 11 11 11 11 11 10 10 10 10 9 9 9 9 9 9 9 8 8 8 7 7 7 6 6 6 5 5 5 5
7 8 8 9 9 10 10 10 10 10 10 11 10 10 10 10 11 11 10 10 10 10 9 9 9 9 9 9 8 8 8 8 7 7 7 6 6 6 5 5 4 4 4
7 7 8 8 9 9 9 9 10 10 10 10 10 10 10 10 10 10 10 10 9 9 9 9 9 9 9 8 8 8 8 7 7 7 6 6 6 5 5 4 4 3 3
6 7 7 8 8 8 9 9 10 10 10 10 10 10 10 10 10 10 10 9 9 9 9 9 9 9 9 8 8 8 7 7 7 6 6 6 5 5 4 4 3 3 3
5 6 6 7 8 8 8 9 9 9 9 10 10 10 10 10 10 10 9 9 9 9 9 9 8 8 8 8 8 7 7 7 6 6 6 5 5 4 4 3 3 3 2
5 5 6 6 7 7 8 8 9 9 9 9 9 9 9 10 10 10 9 9 8 8 8 8 8 8 8 7 7 7 7 7 6 6 5 5 4 4 3 3 2 2 1
4 5 5 6 6 7 7 8 8 8 9 9 9 9 9 9 9 9 9 8 8 8 8 8 8 7 7 7 7 7 7 6 6 5 5 4 4 3 3 3 2 1 1
4 4 5 5 6 6 7 7 8 8 8 8 8 8 8 9 9 9 9 8 8 8 8 7 7 7 7 7 6 6 6 5 5 5 4 4 4 3 3 2 2 1 1
3 4 4 5 5 6 6 7 7 7 7 7 8 8 8 8 8 8 8 8 8 7 7 7 7 6 6 6 6 5 5 5 5 4 4 4 3 3 2 2 1 1 1
3 3 3 4 5 5 6 6 6 6 7 7 7 7 7 7 7 8 8 7 7 7 7 6 6 6 6 5 5 5 5 4 4 4 4 3 3 2 2 1 1 1 0
2 3 3 4 4 5 5 5 5 6 6 6 6 6 7 7 7 7 7 7 7 7 6 6 5 5 5 5 5 4 4 4 4 3 3 3 2 2 1 1 0 -0 -0
2 2 2 3 3 4 4 5 5 5 5 6 6 6 6 6 7 7 7 7 6 6 6 6 5 5 5 4 4 4 4 3 3 3 3 2 2 2 1 1 0 -0 -1
1 1 2 2 3 3 4 4 4 5 5 5 5 5 5 6 6 6 6 6 6 6 5 5 5 5 4 4 4 4 4 3 3 3 2 2 1 1 1 0 -0 -1 -1
0 1 1 2 2 2 3 3 4 4 4 4 4 5 5 5 5 5 5 5 5 5 5 5 5 5 4 4 4 3 3 3 3 2 2 1 1 1 0 -0 -1 -1 -2
0 0 0 1 1 2 2 3 3 3 3 4 4 4 4 4 4 4 4 5 5 5 4 5 4 4 4 4 3 3 3 3 2 2 2 1 1 0 0 -0 -1 -1 -2
-0 -0 0 0 1 1 2 2 2 3 3 3 3 3 3 3 3 4 4 4 4 4 4 4 4 4 3 3 3 3 3 2 2 2 1 1 0 0 -0 -1 -1 -1 -2
-1 -1 -0 -0 0 0 1 1 2 2 2 2 3 3 3 3 3 3 3 3 3 4 3 3 3 3 3 3 2 2 2 2 2 1 1 1 0 -0 -0 -1 -1 -2 -2
-1 -1 -1 -1 -0 0 0 1 1 1 2 2 2 2 3 3 3 3 3 3 3 3 3 3 3 3 2 2 2 2 2 2 1 1 1 0 -0 -0 -1 -1 -2 -2 -2
-2 -2 -1 -1 -1 -0 0 0 1 1 1 1 2 2 2 2 2 2 2 2 2 2 2 2 2 2 2 2 2 2 2 1 1 1 0 0 -0 -1 -1 -1 -2 -2 -3
-2 -2 -2 -1 -1 -1 -0 -0 -0 0 1 1 1 1 1 1 2 2 2 2 2 2 2 2 2 2 2 1 1 1 1 1 1 0 -0 -0 -1 -1 -1 -2 -2 -2 -3
-3 -2 -2 -2 -1 -1 -1 -1 -0 -0 0 0 0 1 1 1 1 1 1 1 1 1 1 1 1 1 1 1 1 1 1 0 0 -0 -0 -1 -1 -1 -2 -2 -2 -3 -3
-3 -3 -2 -2 -2 -2 -1 -1 -1 -0 -0 -0 -0 0 0 1 1 1 1 1 1 1 1 1 1 1 0 0 0 0 0 -0 -0 -1 -1 -1 -1 -2 -2 -2 -3 -3 -3

GEFSGL_850_meantemp_180.txt.gz
Temperature
8 8 9 9 9 10 10 10 11 11 11 11 11 11 11 11 11 10 10 10 10 10 10 10 10 10 9 9 9 9 9 9 9 9 9 9 8 8 8 8 7 7 7
8 8 8 8 9 9 10 10 10 10 11 11 10 11 11 11 11 10 10 10 10 10 10 10 10 10 9 9 9 9 9 9 9 9 9 8 8 8 8 7 7 7 6
7 7 7 8 8 9 10 10 10 10 10 10 10 10 10 10 10 10 10 10 10 10 10 10 10 10 9 9 9 9 9 9 8 8 8 8 8 7 7 7 6 6 6
6 7 7 7 8 8 9 9 9 9 10 10 10 10 10 10 10 10 10 10 10 10 10 10 10 9 9 9 9 9 9 8 8 8 8 8 7 7 7 7 6 6 6
6 6 7 7 7 8 8 9 9 9 10 10 10 10 10 10 10 10 10 10 10 10 10 10 9 9 9 9 9 9 8 8 8 7 7 7 7 7 6 6 6 6 5
5 6 6 7 7 7 7 8 8 9 9 9 9 9 9 9 10 10 10 10 10 10 10 9 9 9 9 9 9 8 8 8 8 7 7 7 7 6 6 6 5 5 5
5 5 5 6 6 7 7 7 8 8 9 9 9 9 9 9 9 9 9 9 9 9 9 9 9 9 9 8 8 8 8 8 7 7 7 7 6 6 6 5 5 5 4
5 5 5 5 6 6 6 7 7 8 8 8 8 8 9 9 9 9 9 9 9 9 9 9 9 9 9 8 8 8 7 7 7 7 6 6 6 6 5 5 5 4 4
4 4 4 5 5 5 6 6 7 7 7 8 8 8 8 8 9 9 9 8 9 9 9 9 9 9 8 8 7 7 7 7 6 6 6 6 5 5 5 4 4 4 3
3 4 4 4 4 5 5 6 6 7 7 7 8 8 8 8 8 8 8 8 8 8 8 8 8 8 8 7 7 7 7 6 6 6 6 5 5 5 4 4 4 3 3
3 3 3 4 4 4 5 5 6 6 7 7 7 7 8 8 8 8 8 8 8 8 8 8 8 8 7 7 7 7 6 6 6 5 5 5 4 4 4 4 3 3 2
2 3 3 3 3 4 5 5 6 6 6 7 7 7 7 7 7 7 8 8 8 8 8 8 8 7 7 7 6 6 6 5 5 5 5 4 4 4 3 3 3 2 2
2 2 3 3 3 3 4 5 5 5 6 6 6 6 6 7 7 7 7 7 7 7 7 7 7 7 6 6 6 5 5 5 5 4 4 4 4 3 3 2 2 2 1
2 2 2 2 3 3 4 4 4 5 5 5 6 6 6 6 6 6 6 6 7 7 7 6 6 6 6 5 5 5 4 4 4 4 4 3 3 3 2 2 2 1 1
1 1 2 2 2 3 3 3 4 4 4 5 5 5 5 6 6 6 6 6 6 6 6 6 6 5 5 5 5 4 4 4 3 3 3 3 3 2 2 1 1 1 0
1 1 1 1 2 2 2 3 3 4 4 4 5 5 5 5 5 5 5 5 5 5 6 6 5 5 5 5 4 4 4 3 3 3 3 2 2 2 1 1 1 0 0
0 0 1 1 1 2 2 2 2 3 4 4 4 4 5 5 5 5 5 5 5 5 5 5 5 5 5 4 4 4 3 3 3 2 2 2 2 1 1 1 0 -0 -0
-0 0 0 1 1 1 1 1 1 2 2 3 4 4 4 4 4 4 4 4 4 4 4 4 4 4 4 4 4 3 3 2 2 2 2 2 1 1 1 0 0 -0 -1
-1 -0 -0 0 0 0 1 1 1 1 1 2 3 3 3 4 4 4 4 4 4 4 4 4 4 4 4 3 3 3 2 2 2 2 2 1 1 1 0 -0 -0 -1 -1
-1 -1 -1 -1 -0 -0 0 0 0 1 1 1 2 2 3 3 3 3 3 3 3 3 3 3 3 3 3 3 3 2 2 2 2 2 1 1 1 0 -0 -0 -1 -1 -1
-1 -1 -1 -1 -1 -1 -0 -0 0 0 0 1 1 2 2 2 2 3 2 2 2 3 2 2 3 2 2 2 2 2 2 2 2 1 1 1 0 -0 -0 -1 -1 -1 -1
-2 -2 -2 -1 -1 -1 -1 -1 -0 -0 0 0 1 1 1 1 2 2 2 2 2 2 2 2 2 2 2 2 2 2 1 1 1 1 1 0 -0 -0 -1 -1 -1 -1 -2
-2 -2 -2 -2 -2 -1 -1 -1 -1 -0 -0 0 0 0 1 1 1 1 2 1 2 1 2 2 2 2 2 1 1 1 1 1 1 1 1 0 -0 -1 -1 -1 -1 -1 -2
-3 -3 -3 -2 -2 -2 -2 -2 -1 -1 -0 -0 0 0 0 0 1 1 1 1 1 1 1 1 1 1 1 1 1 1 1 1 1 0 0 -0 -0 -1 -1 -1 -1 -2 -2
-3 -3 -3 -3 -3 -3 -2 -2 -2 -1 -1 -1 -0 -0 -0 -0 0 0 0 0 1 1 1 1 1 1 1 1 1 1 1 0 0 0 -0 -0 -1 -1 -1 -1 -2 -2 -2
-4 -4 -4 -4 -4 -3 -3 -3 -2 -2 -1 -1 -1 -1 -1 -1 -0 -0 -0 -0 -0 -0 0 0 0 0 0 0 0 0 -0 -0 -0 -0 -1 -1 -1 -1 -1 -2 -2 -2 -3

GEFSGL_850_meantemp_186.txt.gz
Temperature
7 7 7 7 7 8 8 8 8 9 9 9 9 9 9 9 9 9 9 10 9 9 9 9 9 10 9 9 9 9 9 9 9 9 9 9 9 8 8 8 8 8 7
6 7 7 7 7 7 7 8 8 8 8 8 8 9 9 9 9 9 9 9 9 9 9 9 9 9 9 9 9 9 9 9 9 9 9 8 8 8 8 8 8 7 7
6 6 6 6 7 7 7 7 8 8 8 8 8 8 9 9 9 9 9 9 9 9 9 9 9 9 9 9 9 9 9 9 9 8 8 8 8 8 8 8 7 7 7
5 5 5 6 6 6 7 7 7 8 8 8 8 8 8 9 9 9 9 9 9 9 9 9 9 9 9 9 9 9 9 8 8 8 8 8 8 7 7 7 7 7 7
4 5 5 5 5 6 6 7 7 7 7 7 8 8 8 8 9 9 9 9 9 9 9 9 9 9 9 9 9 9 8 8 8 8 7 7 7 7 7 7 7 6 6
4 4 4 5 5 5 6 6 6 7 7 7 7 8 8 8 8 9 8 8 8 8 9 9 9 8 8 9 8 8 8 8 8 7 7 7 7 7 7 6 6 6 5
3 4 4 4 4 5 5 5 6 6 6 6 7 7 8 8 8 8 8 8 8 8 8 8 8 8 8 8 8 8 8 7 7 7 7 7 6 6 6 6 6 5 5
3 3 3 3 4 4 5 5 5 6 6 6 6 7 7 7 8 8 8 8 8 8 8 8 8 8 8 8 8 8 7 7 7 7 7 6 6 6 6 6 5 5 5
3 3 3 3 3 4 4 5 5 5 5 6 6 6 7 7 7 7 7 7 7 7 7 8 8 8 8 8 7 7 7 7 7 6 6 6 6 5 5 5 5 4 4
2 2 3 3 3 3 4 4 4 5 5 5 5 6 6 6 7 7 7 7 7 7 7 7 7 8 8 7 7 7 7 7 6 6 6 5 5 5 5 5 4 4 4
2 2 2 2 2 3 3 4 4 4 5 5 5 5 6 6 6 6 6 6 6 6 7 7 7 7 7 7 7 7 7 6 6 6 5 5 5 5 4 4 3 3 3
1 2 2 2 2 2 3 3 4 4 4 5 5 5 5 6 6 6 6 6 6 6 6 6 7 7 7 7 6 6 6 6 5 5 5 5 4 4 4 3 3 3 2
1 1 1 2 2 2 2 3 3 3 3 4 4 4 5 5 5 5 5 6 6 6 6 6 6 6 6 6 6 6 6 5 5 5 4 4 3 3 3 3 2 2 2
1 1 1 2 2 2 2 2 2 3 3 3 3 4 4 4 5 5 5 5 5 5 5 5 5 6 6 6 5 5 5 5 5 4 4 3 3 3 2 2 2 2 1
1 1 1 1 2 2 2 2 2 2 2 2 3 3 3 4 4 4 4 4 5 5 5 5 5 5 5 5 5 4 4 4 4 4 3 3 3 2 2 2 1 1 1
0 0 1 1 1 1 2 2 2 2 2 2 2 3 3 3 3 4 4 4 4 4 4 4 4 4 4 4 4 4 4 3 3 3 3 3 2 2 2 1 1 1 0
-0 0 0 1 1 1 1 1 2 2 2 2 2 2 3 3 3 3 3 4 4 4 4 4 4 4 4 4 3 3 3 3 3 3 2 2 2 1 1 1 0 0 -0
-0 -0 -0 0 0 1 1 1 1 1 1 2 2 2 2 3 3 3 3 3 3 3 4 3 3 4 3 3 3 3 2 2 2 2 2 1 1 1 1 0 0 -0 -0
-1 -1 -1 -0 -0 0 0 0 0 0 0 1 1 2 2 2 2 3 3 3 3 3 3 3 3 3 3 3 2 2 2 2 2 2 1 1 1 1 0 0 -0 -1 -1
-1 -1 -1 -1 -1 -1 -0 -0 -0 -0 -0 0 0 1 1 2 2 2 2 2 2 2 2 3 3 3 3 2 2 2 2 2 1 1 1 1 1 0 0 -0 -1 -1 -1
-2 -2 -2 -1 -1 -1 -1 -1 -1 -1 -1 -0 -0 0 0 1 1 1 2 2 2 2 2 2 2 2 2 2 2 2 1 1 1 1 1 1 0 -0 -0 -1 -1 -1 -2
-2 -2 -2 -2 -2 -2 -2 -2 -2 -1 -1 -1 -1 -0 0 0 1 1 1 1 1 1 1 1 2 1 1 1 1 1 1 1 1 1 1 0 0 -0 -1 -1 -1 -2 -2
-3 -3 -3 -2 -2 -2 -2 -2 -2 -2 -2 -1 -1 -1 -0 -0 0 0 0 1 1 1 1 1 1 1 1 1 1 1 1 1 1 1 0 0 -0 -1 -1 -1 -2 -2 -2
-3 -3 -3 -3 -3 -3 -3 -3 -3 -2 -2 -2 -1 -1 -1 -1 -0 -0 -0 -0 0 0 0 0 1 1 1 1 0 0 0 0 0 0 0 -0 -0 -1 -1 -2 -2 -2 -2
-4 -4 -4 -3 -3 -3 -3 -3 -3 -2 -2 -2 -2 -1 -1 -1 -1 -1 -1 -1 -0 -0 -0 -0 -0 0 0 0 0 0 0 -0 -0 -0 -1 -1 -1 -1 -1 -2 -2 -2 -2
-5 -4 -4 -4 -4 -4 -3 -3 -3 -3 -3 -2 -2 -2 -1 -1 -1 -1 -1 -1 -1 -1 -1 -1 -0 -0 -0 -0 -0 -0 -0 -0 -1 -1 -1 -1 -1 -1 -2 -2 -2 -2 -3

GEFSGL_850_meantemp_192.txt.gz
Temperature
6 6 6 6 6 6 7 7 7 7 7 7 7 7 7 7 8 8 8 8 8 8 8 8 8 8 8 8 8 9 9 9 8 8 8 9 8 8 8 8 8 8 8
6 6 6 6 6 6 6 6 6 6 7 7 7 7 7 7 7 8 8 8 8 8 8 8 8 8 8 8 8 8 8 8 8 8 8 8 8 8 8 8 8 8 7
5 5 5 5 5 6 6 6 6 6 6 6 7 7 7 7 7 7 7 8 8 8 8 8 8 8 8 8 8 8 8 8 8 8 8 8 8 8 8 8 7 7 7
5 5 5 5 5 5 5 5 6 6 6 6 6 7 7 7 7 7 7 7 8 8 8 8 8 8 8 8 8 8 8 8 8 7 7 7 7 7 7 7 7 7 6
4 4 4 4 4 4 5 5 5 5 6 6 6 6 6 7 7 7 7 7 7 8 8 8 8 8 8 8 8 8 8 7 7 7 7 7 7 7 7 7 6 6 6
3 4 4 4 4 4 4 4 5 5 5 6 6 6 6 6 7 7 7 7 7 7 7 8 8 7 7 7 8 8 8 7 7 7 7 7 7 7 6 6 6 5 5
3 3 3 3 3 3 3 4 4 5 5 5 5 5 6 6 6 6 6 6 7 7 7 7 7 7 7 7 7 7 7 7 7 7 7 7 7 7 6 6 5 5 5
3 3 3 3 3 3 3 3 4 4 4 5 5 5 5 6 6 6 6 6 6 7 7 7 7 7 7 7 7 7 7 7 7 7 7 7 6 6 6 6 5 5 5
2 2 2 2 2 2 3 3 3 4 4 4 4 5 5 5 5 6 6 6 6 6 6 7 7 7 7 7 6 6 6 6 6 6 6 6 6 6 5 5 5 4 4
1 1 2 2 2 2 2 3 3 3 4 4 4 4 5 5 5 5 5 5 5 6 6 6 6 6 6 6 6 6 6 6 6 6 6 5 5 5 5 5 4 4 4
1 1 1 1 1 2 2 2 3 3 3 3 4 4 4 4 5 5 5 5 5 5 5 6 6 6 6 6 6 6 6 6 6 6 5 5 5 4 4 4 4 4 3
1 1 1 1 1 1 2 2 2 2 3 3 3 3 3 4 4 4 4 5 5 5 5 5 5 6 6 6 6 6 6 6 5 5 5 4 4 4 4 3 3 3 3
0 1 1 1 1 1 1 2 2 2 2 2 3 3 3 3 3 4 4 4 4 5 5 5 5 5 5 5 5 5 5 5 5 5 4 4 4 4 3 3 3 2 2
0 0 0 1 1 1 1 1 1 2 2 2 2 2 3 3 3 3 3 4 4 4 4 4 4 5 5 4 4 4 5 5 5 4 4 3 3 3 3 3 2 2 2
0 0 0 0 1 1 1 1 1 1 1 1 2 2 2 2 3 3 3 3 3 3 3 3 3 4 4 4 4 4 4 4 4 3 3 3 2 2 2 2 2 1 1
-0 -0 0 0 0 1 1 1 1 1 1 2 2 2 2 2 2 3 3 3 3 3 3 3 3 3 3 3 3 3 3 3 3 3 3 3 2 2 2 1 1 1 0
-1 -0 -0 0 0 0 0 0 1 1 1 1 2 2 2 2 2 2 2 2 2 2 3 2 2 2 2 2 2 2 2 3 3 2 2 2 2 2 1 1 0 -0 -0
-1 -1 -1 -0 -0 -0 0 0 0 0 0 1 1 1 1 2 2 2 2 2 2 2 2 2 2 2 2 2 2 2 2 2 2 2 2 1 1 1 1 0 -0 -1 -1
-1 -1 -1 -1 -1 -0 -0 -0 -0 -0 -0 -0 0 1 1 1 1 2 2 2 2 2 2 2 2 2 2 2 2 2 2 2 1 1 1 1 1 1 0 -0 -1 -1 -1
-2 -1 -1 -1 -1 -1 -1 -1 -1 -1 -1 -1 -1 -0 0 1 1 1 1 1 1 1 1 1 1 1 1 1 1 1 1 1 1 1 1 1 0 0 -0 -0 -1 -1 -1
-2 -2 -2 -2 -2 -1 -1 -1 -1 -1 -1 -1 -1 -1 -0 0 0 1 1 1 1 1 1 1 1 1 1 1 1 1 1 1 0 1 0 0 -0 -0 -1 -1 -1 -1 -2
-3 -3 -2 -2 -2 -2 -2 -2 -2 -2 -2 -2 -2 -1 -0 -0 -0 0 0 0 0 0 0 0 0 0 1 1 1 0 0 0 0 0 -0 -0 -0 -1 -1 -1 -2 -2 -2
-3 -3 -3 -3 -3 -3 -2 -2 -2 -2 -2 -2 -2 -2 -1 -1 -0 -0 -0 0 0 0 0 0 0 0 0 0 0 0 0 0 0 0 -0 -0 -1 -1 -1 -2 -2 -2 -2
-4 -4 -4 -4 -3 -3 -3 -3 -3 -3 -3 -3 -2 -2 -2 -1 -1 -1 -1 -0 -0 -0 -0 -0 -0 0 0 -0 -0 -0 -0 -0 -0 -0 -0 -1 -1 -1 -2 -2 -2 -2 -3
-4 -4 -4 -4 -4 -4 -3 -3 -3 -3 -3 -3 -3 -2 -2 -2 -1 -1 -1 -1 -1 -1 -1 -1 -0 -0 -0 -0 -0 -0 -0 -0 -1 -1 -1 -1 -1 -2 -2 -2 -2 -3 -3
-5 -5 -5 -4 -4 -4 -4 -4 -4 -4 -3 -3 -3 -3 -2 -2 -2 -1 -1 -1 -1 -1 -1 -1 -1 -1 -1 -1 -1 -1 -1 -1 -1 -1 -1 -1 -2 -2 -2 -2 -2 -3 -3

GEFSGL_850_meantemp_198.txt.gz
Temperature
6 6 6 6 6 6 6 6 6 6 6 6 6 6 6 6 7 7 7 7 7 7 7 7 7 7 8 7 8 8 8 8 8 8 8 8 8 8 8 8 8 8 8
6 6 6 6 5 5 5 6 6 6 6 6 6 6 6 6 6 6 7 7 7 7 7 7 7 7 7 7 7 8 8 8 8 8 8 8 8 8 8 8 8 8 8
5 5 5 5 5 5 5 5 5 5 5 6 5 6 6 6 6 6 6 6 7 7 7 7 7 7 7 7 7 7 7 8 8 8 7 7 7 7 7 7 7 7 7
5 5 5 4 4 4 5 5 5 5 5 5 5 5 5 6 6 6 6 6 6 6 7 7 7 7 7 7 7 7 7 7 7 7 7 7 7 7 7 7 7 7 7
4 4 4 4 4 4 4 4 4 4 4 4 5 5 5 5 5 6 6 6 6 6 6 6 6 7 7 7 7 7 7 7 7 7 6 6 6 6 6 6 6 6 6
4 3 3 3 3 4 4 4 4 4 4 4 4 4 4 5 5 5 5 6 6 6 6 6 6 6 6 7 7 7 6 6 6 6 6 6 6 6 6 5 6 5 5
3 3 3 3 3 3 3 3 3 3 3 3 4 4 4 4 5 5 5 5 5 5 6 6 6 6 6 6 6 6 6 6 6 6 6 6 6 6 6 5 5 5 5
3 2 2 2 2 2 2 3 3 3 3 3 3 3 4 4 4 4 5 5 5 5 5 5 5 5 6 6 6 6 6 6 6 6 6 6 6 6 5 5 5 5 5
2 2 2 2 2 2 2 2 2 3 3 3 3 3 4 4 4 4 5 5 5 5 5 5 5 5 5 5 5 5 5 5 5 5 5 5 5 5 5 5 4 4 4
2 2 1 1 1 1 1 2 2 2 2 3 3 3 3 3 4 4 4 4 4 4 4 4 5 5 5 5 5 5 5 5 5 5 5 5 5 4 4 4 4 4 4
1 1 1 1 1 1 1 1 1 1 2 2 2 3 3 3 3 4 4 4 4 4 4 4 4 4 4 5 5 5 5 4 4 4 4 4 4 4 4 4 4 4 4
1 1 1 1 1 1 1 1 1 1 1 2 2 2 2 2 3 3 3 3 3 3 3 4 4 4 4 4 4 4 4 4 4 4 3 3 3 3 3 3 3 3 3
1 1 1 1 1 1 1 1 1 1 1 1 1 2 2 2 2 3 3 3 3 3 3 3 3 4 4 4 4 4 3 3 3 3 3 3 3 3 3 3 3 3 3
0 0 0 0 0 1 1 1 1 1 1 1 1 1 1 2 2 2 3 3 3 3 3 3 3 3 3 3 3 3 3 3 3 3 3 2 2 2 2 2 2 2 2
-0 -0 -0 -0 0 0 0 0 0 0 1 1 1 1 1 1 1 2 2 2 2 2 2 2 2 3 3 3 3 2 2 2 2 2 2 2 2 2 2 2 2 1 1
-0 -0 -0 -0 -0 -0 -0 0 0 0 1 1 1 1 1 1 1 2 2 2 2 2 2 2 2 2 2 2 2 2 2 2 2 2 2 2 1 1 1 1 1 1 1
-1 -1 -1 -0 -0 -0 -0 -1 -0 0 1 1 1 1 1 1 1 2 2 2 1 2 1 1 1 1 1 1 1 1 1 1 1 1 1 1 1 1 1 0 0 -0 -0
-1 -1 -1 -1 -1 -1 -1 -1 -1 -1 -0 0 0 0 1 1 1 1 1 1 1 1 1 1 1 1 1 1 1 1 1 1 1 1 1 1 1 0 0 -0 -0 -0 -1
-1 -1 -1 -1 -1 -1 -1 -1 -1 -1 -1 -1 -1 -0 0 0 1 1 1 1 1 1 1 1 1 1 1 1 1 1 0 0 0 0 0 0 0 -0 -0 -0 -1 -1 -1
-2 -2 -2 -2 -1 -1 -1 -1 -1 -1 -2 -2 -1 -1 -1 0 0 1 1 1 1 1 1 1 0 0 0 0 0 0 0 0 0 0 -0 -0 -0 -1 -1 -1 -1 -1 -2
-2 -2 -2 -2 -2 -2 -2 -2 -2 -2 -2 -2 -2 -1 -1 -0 -0 0 0 0 0 0 0 0 0 0 0 0 0 -0 -0 -0 -0 -1 -1 -1 -1 -1 -1 -1 -2 -2 -2
-3 -3 -3 -3 -3 -3 -3 -2 -2 -2 -2 -2 -2 -2 -1 -1 -1 -0 -0 -0 -0 -0 -0 -0 -0 -0 -0 -0 -0 -0 -0 -0 -1 -1 -1 -1 -1 -1 -1 -2 -2 -2 -3
-4 -3 -3 -3 -3 -3 -3 -3 -3 -3 -3 -3 -2 -2 -1 -1 -1 -1 -1 -0 -0 -0 -0 -0 -0 -1 -0 -0 -0 -0 -0 -0 -1 -1 -1 -1 -2 -2 -2 -2 -2 -3 -3
-4 -4 -4 -4 -4 -4 -4 -4 -3 -3 -3 -3 -3 -2 -2 -2 -1 -1 -1 -1 -1 -1 -1 -1 -1 -1 -1 -1 -1 -1 -1 -1 -1 -1 -1 -2 -2 -2 -2 -3 -3 -3 -3
-4 -4 -4 -4 -4 -4 -4 -4 -4 -4 -4 -4 -3 -3 -2 -2 -2 -2 -2 -1 -1 -1 -1 -1 -1 -1 -1 -1 -1 -1 -1 -1 -2 -2 -2 -2 -2 -3 -3 -3 -3 -3 -3
-5 -5 -5 -5 -5 -5 -5 -4 -4 -4 -4 -4 -4 -3 -3 -2 -2 -2 -2 -2 -2 -2 -1 -1 -1 -1 -1 -1 -1 -1 -2 -2 -2 -2 -2 -3 -3 -3 -3 -3 -3 -4 -4

GEFSGL_850_meantemp_204.txt.gz
Temperature
6 6 6 6 6 6 5 5 5 5 5 5 5 5 5 5 5 6 6 6 6 6 6 6 6 6 6 6 6 6 6 6 6 7 7 7 7 7 7 7 7 7 7
6 5 5 5 5 5 5 5 5 5 5 5 5 5 5 5 5 5 5 5 5 5 6 6 6 6 6 6 6 6 6 6 6 6 6 7 7 7 7 7 7 7 7
5 5 5 5 5 5 4 4 4 4 5 5 5 4 5 5 5 5 5 5 5 5 5 5 6 6 6 6 6 6 6 6 6 6 6 6 6 6 6 6 6 6 6
5 5 4 4 4 4 4 4 4 4 4 4 4 4 4 4 4 4 5 5 5 5 5 5 5 5 6 6 6 6 6 6 6 6 6 6 6 6 6 6 6 6 6
4 4 4 4 4 4 4 4 4 4 4 4 4 4 4 4 4 4 4 4 4 5 5 5 5 5 5 6 5 5 6 6 5 5 5 5 5 5 5 5 5 5 5
4 3 3 3 3 3 3 3 3 3 3 3 4 3 3 3 4 4 4 4 4 4 5 5 5 5 5 5 5 5 5 5 5 5 5 5 5 5 5 5 5 5 4
3 3 3 3 3 3 3 3 3 3 3 3 3 3 3 3 3 4 4 4 4 4 4 4 4 5 5 5 5 5 5 5 5 5 5 5 5 5 5 4 4 4 4
3 2 2 2 2 2 3 3 3 3 3 2 3 3 2 3 3 3 3 3 4 4 4 4 4 4 4 4 4 4 5 5 5 5 5 4 4 4 4 4 4 4 4
2 2 2 2 2 2 2 3 3 2 2 2 2 2 2 2 3 3 3 3 3 3 3 4 4 4 4 4 4 4 4 4 4 4 4 4 4 4 4 4 3 3 3
2 2 2 2 2 2 2 2 2 2 2 2 2 2 2 2 2 3 3 2 3 3 3 3 3 4 4 4 4 4 4 4 4 4 3 3 3 3 3 3 3 3 3
1 1 1 1 1 1 1 1 1 1 1 1 1 2 2 2 2 2 2 2 2 2 2 3 3 3 3 3 3 3 3 3 3 3 3 3 3 3 3 3 3 3 3
1 1 1 1 1 1 1 1 1 1 1 1 1 1 1 1 2 2 2 2 2 2 2 2 3 3 3 3 3 3 3 3 3 2 2 2 2 2 2 2 2 2 2
0 0 1 1 1 1 1 1 1 0 -0 0 0 0 1 1 1 1 1 2 2 2 2 2 2 3 3 3 3 3 3 2 2 2 2 2 2 2 2 2 2 2 1
-0 0 0 0 0 0 0 0 0 -0 -0 -0 -0 -0 0 1 1 1 1 1 1 2 2 2 2 2 2 2 2 2 2 2 2 1 1 1 1 1 1 1 1 1 1
-0 -0 -0 -0 -0 -0 -0 -1 -1 -0 -1 -0 -0 -0 0 0 0 1 1 1 1 1 1 2 2 2 2 2 1 1 1 1 1 1 1 1 0 0 0 0 0 0 0
-1 -1 -1 -1 -1 -1 -1 -1 -1 -1 -1 -0 -0 -0 -0 -0 -0 0 0 1 1 1 1 1 1 1 1 1 1 1 1 1 1 1 1 0 0 0 -0 -0 -0 -0 -0
-2 -2 -1 -1 -1 -1 -1 -1 -1 -1 -0 -0 -0 -0 -0 -0 -0 0 0 0 1 1 1 1 1 1 1 1 1 1 1 0 0 0 0 0 0 -0 -0 -1 -1 -1 -1
-2 -2 -2 -2 -2 -2 -2 -2 -2 -2 -1 -1 -1 -1 -1 -0 -0 -0 0 0 0 0 1 0 0 0 0 0 0 0 0 0 0 0 0 0 -0 -0 -1 -1 -1 -1 -2
-2 -2 -2 -2 -2 -2 -2 -2 -2 -2 -2 -2 -1 -1 -1 -1 -1 -0 -0 0 -0 -0 -0 -0 -0 0 0 0 0 -0 -0 -0 -0 -0 -0 -0 -0 -1 -1 -1 -2 -2 -2
-2 -2 -2 -3 -2 -2 -2 -2 -2 -2 -2 -2 -2 -2 -1 -1 -1 -1 -1 -1 -0 -0 -0 -0 -0 -0 -0 -0 -0 -0 -0 -1 -1 -1 -1 -1 -1 -1 -1 -2 -2 -2 -2
-3 -3 -3 -3 -3 -3 -2 -2 -3 -3 -3 -2 -2 -2 -2 -2 -2 -1 -1 -1 -1 -1 -1 -1 -1 -1 -1 -1 -1 -1 -1 -1 -1 -1 -1 -1 -1 -2 -2 -2 -2 -2 -3
-3 -3 -3 -3 -3 -3 -3 -3 -3 -3 -3 -3 -3 -2 -2 -2 -2 -2 -1 -1 -1 -1 -1 -1 -1 -1 -1 -1 -1 -1 -1 -1 -1 -1 -1 -2 -2 -2 -2 -3 -3 -3 -3
-4 -4 -4 -4 -3 -3 -3 -4 -4 -4 -3 -3 -3 -3 -3 -3 -2 -2 -2 -2 -2 -1 -1 -1 -1 -1 -1 -1 -1 -1 -1 -1 -1 -2 -2 -2 -2 -2 -3 -3 -3 -3 -3
-4 -4 -4 -4 -4 -4 -4 -4 -4 -4 -4 -4 -4 -4 -3 -3 -3 -2 -2 -2 -2 -2 -2 -2 -1 -1 -1 -1 -1 -2 -2 -2 -2 -2 -2 -2 -2 -3 -3 -3 -3 -3 -3
-5 -5 -5 -5 -5 -5 -5 -5 -5 -5 -5 -4 -4 -4 -4 -3 -3 -3 -2 -2 -2 -2 -2 -2 -2 -2 -2 -2 -2 -2 -2 -2 -2 -2 -2 -2 -3 -3 -3 -3 -3 -4 -4
-5 -5 -5 -5 -5 -5 -5 -5 -5 -5 -5 -5 -5 -4 -4 -3 -3 -3 -3 -3 -2 -2 -2 -2 -2 -2 -2 -2 -2 -2 -2 -2 -2 -2 -3 -3 -3 -3 -3 -4 -4 -4 -4

GEFSGL_850_meantemp_210.txt.gz
Temperature
6 6 6 6 6 6 5 5 5 5 5 5 5 5 5 5 5 5 5 5 4 4 4 4 4 5 5 5 5 5 5 5 5 5 5 6 6 6 6 6 6 6 6
6 6 6 6 5 5 5 5 5 5 5 5 4 4 4 5 5 5 4 4 4 4 4 4 4 4 4 4 5 5 5 5 4 5 5 5 5 5 5 6 6 6 6
5 5 5 5 5 5 5 5 4 4 4 4 4 4 4 4 4 4 4 4 4 4 4 4 4 4 4 4 5 4 4 4 4 4 4 5 5 5 5 5 5 5 5
5 5 5 5 4 4 4 4 4 4 4 4 4 4 4 4 4 4 4 4 4 4 4 4 4 4 4 4 4 4 4 4 4 4 4 4 4 4 4 5 5 5 5
4 4 4 4 4 4 4 4 3 3 3 3 3 3 3 3 3 3 3 3 3 3 3 4 4 4 4 4 4 4 4 4 4 4 4 4 4 4 4 4 4 4 4
4 4 4 4 3 3 3 3 3 3 3 3 3 3 3 3 3 3 3 3 3 3 3 3 3 3 3 3 3 3 3 3 4 4 4 4 4 4 4 4 3 3 3
3 3 3 3 3 3 3 3 3 2 2 3 3 3 3 3 3 3 3 3 3 3 3 3 3 3 3 3 3 3 3 3 3 4 4 4 4 4 4 3 3 3 3
3 2 2 2 2 2 2 2 2 2 2 2 2 2 2 2 2 2 2 2 2 2 2 2 3 3 3 3 3 3 3 3 3 3 4 4 4 3 3 3 3 3 3
2 2 2 2 2 2 2 2 2 2 2 2 2 2 2 2 2 2 2 2 2 2 2 2 2 2 3 3 3 3 3 3 3 3 3 3 3 3 3 3 2 2 2
1 1 1 1 1 1 1 1 1 1 1 1 1 1 1 1 1 1 1 1 2 2 2 2 2 2 2 2 3 3 2 2 3 3 3 3 2 2 2 2 2 2 2
1 1 1 1 1 1 1 1 1 1 1 1 1 1 1 1 1 1 1 1 1 1 1 1 1 2 2 2 2 2 2 2 2 2 2 2 2 2 2 2 2 2 2
0 1 1 1 1 0 0 0 0 0 0 0 0 0 1 0 1 1 1 1 1 1 1 1 1 1 1 2 2 2 2 2 2 2 2 2 2 2 2 1 1 1 1
0 0 0 0 0 0 -0 -0 -0 -0 -0 -1 -1 -0 -0 0 0 0 0 0 0 0 0 0 1 1 1 1 1 2 2 2 2 2 1 1 1 1 1 1 1 1 1
-0 -0 -0 -0 -0 -0 -1 -1 -1 -1 -1 -1 -1 -1 -1 -0 -0 -0 0 0 0 0 0 0 0 1 1 1 1 1 1 1 1 1 1 1 1 0 0 0 0 1 0
-1 -1 -1 -1 -1 -1 -1 -1 -1 -1 -2 -2 -1 -1 -1 -1 -1 -1 -0 -0 -0 -0 -0 0 0 0 0 0 1 1 1 1 1 0 0 0 0 0 -0 0 0 0 -0
-1 -1 -1 -1 -2 -2 -2 -2 -2 -2 -2 -2 -1 -1 -1 -1 -1 -1 -1 -1 -0 -0 -0 -0 -0 -0 -0 -0 -0 -0 0 0 0 0 -0 -0 -0 -0 -0 -0 -0 -0 -1
-2 -2 -2 -2 -2 -2 -2 -2 -2 -2 -2 -1 -1 -1 -1 -1 -1 -1 -1 -1 -0 -0 -0 -0 -1 -1 -0 -0 -0 -0 -0 -0 -0 -0 -0 -0 -0 -1 -1 -1 -1 -1 -1
-2 -2 -2 -2 -3 -3 -3 -3 -3 -3 -2 -2 -1 -1 -1 -1 -1 -1 -1 -1 -1 -1 -1 -1 -1 -1 -1 -1 -1 -1 -1 -1 -1 -1 -1 -1 -1 -1 -1 -1 -1 -1 -2
-3 -3 -3 -3 -3 -3 -3 -3 -3 -3 -3 -2 -2 -2 -2 -2 -1 -1 -1 -1 -1 -1 -1 -1 -1 -1 -1 -1 -1 -1 -1 -1 -1 -1 -1 -1 -1 -1 -1 -2 -2 -2 -2
-3 -3 -3 -3 -3 -3 -3 -4 -3 -3 -3 -3 -3 -2 -2 -2 -2 -2 -2 -2 -2 -2 -1 -1 -1 -1 -1 -1 -1 -1 -1 -1 -1 -1 -1 -1 -1 -2 -2 -2 -2 -2 -3
-4 -4 -4 -4 -4 -4 -4 -4 -4 -4 -3 -3 -3 -3 -3 -3 -3 -3 -2 -2 -2 -2 -2 -2 -1 -1 -1 -1 -1 -1 -1 -1 -1 -1 -2 -2 -2 -2 -2 -2 -2 -3 -3
-4 -4 -4 -4 -4 -4 -4 -4 -4 -4 -3 -3 -3 -3 -3 -3 -3 -3 -3 -3 -3 -2 -2 -2 -2 -1 -1 -1 -1 -1 -1 -1 -1 -2 -2 -2 -2 -2 -2 -2 -3 -3 -3
-5 -5 -5 -4 -4 -4 -4 -4 -4 -4 -4 -4 -4 -4 -3 -3 -3 -3 -3 -3 -3 -2 -2 -2 -2 -2 -2 -2 -2 -2 -2 -2 -2 -2 -2 -2 -2 -2 -2 -3 -3 -3 -3
-5 -5 -5 -5 -5 -5 -5 -5 -5 -4 -4 -4 -4 -4 -4 -4 -4 -4 -3 -3 -3 -3 -3 -2 -2 -2 -2 -2 -2 -2 -2 -2 -2 -2 -2 -2 -2 -2 -3 -3 -3 -3 -4
-5 -5 -5 -5 -5 -5 -5 -5 -5 -5 -5 -4 -4 -4 -4 -4 -4 -4 -4 -3 -3 -3 -3 -3 -3 -3 -2 -2 -2 -2 -2 -2 -2 -2 -2 -2 -2 -3 -3 -3 -4 -4 -4
-6 -6 -6 -6 -6 -6 -6 -6 -5 -5 -5 -5 -5 -5 -5 -5 -4 -4 -4 -4 -3 -3 -3 -3 -3 -3 -3 -3 -3 -3 -3 -3 -3 -3 -3 -3 -3 -3 -3 -4 -4 -4 -4

GEFSGL_850_meantemp_216.txt.gz
Temperature
6 6 6 6 6 6 6 6 6 5 5 5 5 5 5 5 5 5 5 4 4 4 4 4 4 4 4 4 4 4 4 4 4 5 5 5 5 5 5 4 4 5 5
6 6 6 6 5 5 5 5 5 5 5 5 5 5 5 4 4 4 4 4 4 4 4 4 4 4 4 4 4 4 4 4 4 4 4 4 4 4 4 4 4 4 4
5 5 5 5 5 5 5 5 5 5 5 4 4 4 4 4 4 4 4 4 4 3 3 3 3 3 3 3 3 3 3 3 4 4 4 4 4 4 4 4 4 4 4
5 5 5 5 5 5 5 5 4 4 4 4 4 4 3 3 3 3 3 3 3 3 3 3 3 3 3 3 3 3 3 3 3 3 3 3 3 3 3 3 3 3 4
4 4 4 4 4 4 4 4 4 4 3 3 3 3 3 3 3 3 3 3 3 3 3 3 3 3 3 3 3 3 3 3 3 3 3 3 3 3 3 3 3 3 3
4 4 4 4 4 4 3 3 3 3 3 3 3 3 3 3 3 3 2 3 3 3 3 3 3 2 2 3 3 3 3 3 2 3 3 3 3 3 3 2 2 2 2
3 3 3 3 3 3 3 3 3 3 3 2 2 2 2 2 2 2 2 2 2 2 2 2 2 2 2 2 2 2 2 2 2 2 2 2 2 2 2 2 2 2 2
3 3 3 2 3 3 2 2 2 2 2 2 2 2 2 2 2 2 2 2 2 2 2 2 2 2 2 2 2 2 2 2 2 2 2 2 2 2 2 2 2 2 2
2 2 2 2 2 2 2 2 2 1 1 1 1 1 1 1 1 1 1 1 1 1 1 1 1 1 1 2 1 2 2 2 2 2 2 2 2 2 2 2 2 2 1
1 1 1 1 1 1 1 1 1 1 1 1 1 1 1 1 1 1 1 1 1 1 1 1 1 1 1 1 1 1 1 1 1 1 1 2 2 2 2 2 1 1 1
1 1 1 1 1 1 1 1 0 0 0 0 0 0 0 0 1 1 1 0 0 0 0 0 0 1 1 1 1 1 1 1 1 1 1 1 1 2 1 1 1 1 1
0 0 0 0 0 0 0 -0 -0 -0 -1 -1 -1 -1 -0 -0 0 0 0 0 0 -0 -0 -0 -0 0 0 1 1 1 1 1 1 1 1 1 1 1 1 1 1 1 1
-0 -0 -0 -0 -0 -0 -1 -1 -1 -1 -1 -1 -1 -1 -1 -1 -1 -0 -0 -0 -0 -1 -0 -0 -0 -0 0 0 0 0 0 0 0 0 0 0 1 1 1 1 1 1 1
-1 -1 -1 -1 -1 -1 -1 -1 -2 -2 -2 -2 -2 -2 -2 -1 -1 -1 -1 -1 -1 -1 -1 -1 -1 -0 -0 -0 -0 -0 -0 -0 0 -0 -0 -0 0 0 0 -0 -0 0 0
-1 -1 -2 -2 -2 -2 -2 -2 -2 -2 -2 -2 -2 -2 -2 -2 -2 -1 -1 -1 -1 -1 -1 -1 -1 -1 -1 -1 -1 -1 -1 -0 -0 -1 -0 -0 -0 -0 -0 -0 -0 -0 -1
-2 -2 -2 -2 -2 -2 -3 -2 -2 -2 -2 -2 -2 -2 -2 -2 -2 -1 -1 -1 -1 -1 -1 -1 -1 -1 -1 -1 -1 -1 -1 -1 -1 -1 -1 -1 -1 -1 -1 -1 -1 -1 -1
-3 -3 -3 -3 -3 -3 -3 -3 -3 -3 -2 -2 -2 -2 -2 -2 -2 -2 -2 -2 -2 -1 -1 -1 -1 -1 -1 -1 -1 -1 -1 -1 -1 -1 -1 -1 -1 -1 -1 -1 -1 -1 -1
-3 -3 -3 -3 -4 -4 -4 -4 -4 -4 -3 -3 -2 -2 -2 -2 -2 -2 -2 -2 -2 -2 -2 -1 -1 -1 -1 -1 -1 -1 -1 -1 -1 -1 -1 -1 -1 -1 -1 -2 -2 -2 -2
-4 -4 -4 -4 -4 -4 -4 -4 -4 -4 -4 -4 -3 -3 -3 -3 -2 -2 -2 -2 -2 -2 -2 -2 -1 -1 -1 -2 -2 -2 -2 -1 -1 -1 -1 -1 -1 -1 -2 -2 -2 -2 -2
-4 -4 -4 -4 -4 -4 -4 -4 -4 -4 -4 -4 -4 -4 -3 -3 -3 -3 -2 -2 -2 -2 -2 -2 -2 -2 -2 -2 -2 -2 -2 -2 -2 -2 -2 -2 -2 -2 -2 -2 -2 -2 -3
-4 -4 -4 -4 -4 -4 -4 -5 -5 -5 -4 -4 -4 -4 -4 -4 -4 -3 -3 -3 -3 -3 -3 -2 -2 -2 -2 -2 -2 -2 -2 -2 -2 -2 -2 -2 -2 -2 -2 -2 -2 -2 -3
-5 -5 -5 -5 -5 -5 -5 -5 -5 -5 -5 -5 -5 -4 -4 -4 -4 -4 -4 -4 -3 -3 -3 -3 -3 -2 -2 -2 -2 -2 -2 -2 -2 -2 -2 -2 -2 -2 -2 -2 -3 -3 -3
-5 -5 -5 -5 -5 -5 -5 -5 -5 -5 -5 -5 -5 -5 -4 -4 -4 -4 -4 -4 -4 -4 -3 -3 -3 -3 -2 -2 -2 -2 -2 -2 -2 -2 -2 -2 -2 -2 -3 -3 -3 -3 -3
-6 -5 -5 -5 -6 -6 -6 -5 -5 -5 -5 -5 -5 -5 -5 -4 -4 -4 -4 -4 -4 -4 -4 -3 -3 -3 -3 -3 -2 -2 -2 -2 -2 -2 -2 -2 -2 -3 -3 -3 -3 -3 -3
-6 -6 -6 -6 -6 -6 -6 -6 -6 -5 -5 -5 -5 -5 -5 -5 -5 -4 -4 -4 -4 -4 -4 -4 -3 -3 -3 -3 -3 -3 -2 -2 -2 -2 -2 -2 -2 -3 -3 -3 -3 -3 -4
-6 -6 -6 -6 -6 -6 -6 -6 -6 -6 -6 -6 -5 -5 -5 -5 -5 -5 -5 -4 -4 -4 -4 -4 -4 -3 -3 -3 -3 -3 -3 -3 -2 -2 -3 -3 -3 -3 -3 -3 -3 -4 -4

GEFSGL_850_meantemp_222.txt.gz
Temperature
6 7 7 6 6 6 6 6 6 6 6 6 6 6 6 6 5 5 5 5 5 5 4 4 4 4 4 4 4 4 4 4 4 4 4 4 4 4 4 4 4 4 4
6 6 6 6 6 6 6 6 6 6 6 6 5 5 5 5 5 4 4 4 4 4 4 4 4 4 4 4 4 4 4 4 3 3 3 3 4 4 4 4 4 4 4
5 5 5 5 5 5 5 5 5 5 5 5 5 5 5 4 4 4 4 3 3 3 3 3 3 3 3 3 3 3 3 3 3 3 3 3 3 3 3 3 3 3 3
5 5 5 5 5 5 5 5 5 5 5 5 5 4 4 4 4 4 3 3 3 3 3 3 3 3 3 3 3 3 3 3 3 3 2 2 3 3 3 3 3 3 3
4 4 4 4 4 4 4 4 4 4 4 4 4 4 4 4 3 3 3 3 3 3 3 3 3 3 3 3 3 3 2 2 2 2 2 2 2 2 2 2 2 2 3
4 4 4 4 4 4 4 4 4 4 4 3 3 3 3 3 3 3 3 3 3 2 2 3 2 2 2 2 2 2 2 2 2 2 1 1 1 1 2 2 2 2 2
3 3 3 3 3 3 3 3 3 3 3 3 3 3 3 3 2 2 2 2 2 2 2 2 2 2 2 2 2 2 2 2 2 1 1 1 1 1 1 1 1 1 2
3 2 2 2 2 2 2 2 2 2 2 2 2 2 2 2 2 2 2 2 2 2 1 1 1 1 1 1 1 1 1 1 1 1 1 1 1 1 1 1 1 1 1
2 2 1 2 2 2 2 1 1 1 1 1 1 1 1 2 1 1 1 1 1 1 1 1 1 1 1 1 1 1 1 1 1 1 1 1 1 1 1 1 1 1 1
1 1 1 1 1 1 1 1 1 1 1 1 1 1 1 1 1 1 1 0 0 0 0 0 0 0 0 0 1 1 1 1 1 0 0 0 1 1 1 1 1 1 0
0 0 0 0 0 0 0 0 0 0 0 0 0 0 0 0 0 0 0 -0 -0 -0 -0 -0 -0 -0 -0 0 0 0 0 0 0 0 0 0 0 0 1 1 0 0 0
-0 -0 0 0 0 0 -0 -0 -0 -0 -0 -0 -0 -0 -0 -1 -1 -1 -1 -1 -1 -1 -1 -1 -1 -1 -0 -0 -0 -0 -0 0 0 -0 -0 -0 -0 -0 0 0 0 0 0
-1 -0 -0 -0 -0 -0 -0 -1 -1 -1 -1 -1 -1 -1 -1 -1 -1 -1 -1 -1 -1 -1 -1 -1 -1 -1 -1 -1 -1 -0 -0 -0 -0 -1 -1 -1 -1 -1 -0 -0 -0 -0 -0
-1 -1 -1 -1 -1 -1 -1 -1 -1 -1 -2 -2 -2 -2 -2 -2 -2 -2 -2 -2 -2 -1 -1 -1 -1 -1 -1 -1 -1 -1 -1 -1 -1 -1 -1 -1 -1 -1 -1 -1 -1 -0 -1
-2 -2 -2 -2 -2 -2 -2 -2 -2 -2 -2 -2 -2 -2 -3 -3 -3 -3 -2 -2 -2 -2 -2 -1 -1 -1 -1 -1 -1 -1 -1 -1 -1 -1 -1 -1 -1 -1 -1 -1 -1 -1 -1
-2 -2 -2 -2 -2 -2 -2 -3 -3 -3 -3 -3 -3 -3 -3 -3 -3 -3 -2 -2 -2 -2 -2 -2 -2 -2 -2 -2 -2 -2 -2 -2 -2 -2 -2 -1 -2 -2 -2 -2 -2 -2 -2
-3 -3 -3 -3 -3 -3 -3 -3 -3 -3 -3 -3 -3 -3 -3 -3 -3 -3 -2 -2 -2 -2 -2 -2 -2 -2 -2 -2 -2 -2 -2 -2 -2 -2 -2 -2 -2 -2 -2 -2 -2 -2 -2
-3 -3 -3 -4 -4 -4 -4 -4 -4 -4 -4 -3 -3 -3 -3 -3 -3 -3 -3 -2 -2 -2 -2 -2 -2 -2 -2 -2 -2 -2 -2 -2 -2 -2 -2 -2 -2 -2 -2 -2 -2 -2 -2
-4 -4 -4 -4 -4 -4 -4 -4 -4 -4 -4 -4 -4 -4 -4 -3 -3 -3 -3 -3 -3 -3 -3 -3 -3 -3 -3 -3 -3 -2 -2 -2 -2 -2 -2 -2 -2 -2 -2 -3 -3 -3 -3
-4 -4 -5 -5 -5 -5 -5 -5 -5 -5 -5 -4 -4 -4 -4 -4 -4 -4 -3 -3 -3 -3 -3 -3 -3 -3 -3 -3 -3 -2 -2 -2 -2 -2 -2 -2 -3 -3 -3 -3 -3 -3 -3
-5 -5 -5 -5 -5 -5 -5 -5 -5 -5 -5 -5 -5 -5 -5 -4 -4 -4 -4 -4 -4 -4 -4 -4 -3 -3 -3 -3 -3 -3 -3 -2 -2 -2 -2 -3 -3 -3 -3 -3 -4 -4 -4
-5 -5 -5 -5 -5 -5 -5 -5 -5 -5 -5 -5 -5 -5 -5 -5 -5 -5 -5 -4 -4 -4 -4 -4 -4 -3 -3 -3 -3 -3 -3 -3 -3 -3 -3 -3 -3 -3 -3 -3 -4 -4 -4
-6 -6 -6 -6 -6 -6 -6 -6 -6 -6 -6 -6 -5 -5 -5 -5 -5 -5 -5 -5 -4 -4 -4 -4 -4 -4 -3 -3 -3 -3 -3 -3 -3 -3 -3 -3 -3 -3 -3 -4 -4 -4 -4
-6 -6 -6 -6 -6 -6 -6 -6 -6 -6 -6 -6 -6 -6 -5 -5 -5 -5 -5 -5 -5 -4 -4 -4 -4 -4 -4 -4 -3 -3 -3 -3 -3 -3 -3 -3 -3 -3 -4 -4 -4 -4 -4
-6 -6 -6 -7 -7 -7 -7 -6 -6 -6 -6 -6 -6 -6 -6 -5 -5 -5 -5 -5 -5 -5 -4 -4 -4 -4 -4 -4 -3 -3 -3 -3 -3 -3 -3 -3 -3 -4 -4 -4 -4 -4 -4
-7 -7 -7 -7 -7 -7 -7 -7 -6 -6 -6 -6 -6 -6 -6 -6 -5 -5 -5 -5 -5 -5 -5 -4 -4 -4 -4 -4 -3 -3 -3 -3 -3 -3 -3 -3 -3 -4 -4 -4 -4 -4 -4

GEFSGL_850_meantemp_228.txt.gz
Temperature
7 7 7 6 6 6 6 6 6 6 6 6 6 6 6 6 6 5 5 5 5 5 5 4 4 4 4 4 4 4 3 3 3 3 4 4 4 4 4 4 4 4 4
6 6 6 6 6 6 6 6 6 5 5 5 5 5 5 5 5 5 5 5 5 4 4 4 4 4 4 4 3 3 3 3 3 3 3 3 3 3 3 3 3 3 3
6 5 5 5 5 5 5 5 5 5 5 5 5 5 5 5 5 5 5 4 4 4 4 4 4 3 3 3 3 3 3 3 3 2 3 3 3 3 3 3 3 3 3
5 5 5 5 5 5 5 5 4 4 5 4 4 4 4 4 4 4 4 4 4 4 3 3 3 3 3 3 3 3 3 3 2 2 2 2 2 2 2 2 3 3 3
4 4 4 4 4 4 4 4 4 4 4 4 4 4 4 4 4 4 3 3 3 3 3 3 3 3 2 2 2 2 2 2 2 2 2 2 2 2 2 2 2 2 2
4 4 4 4 4 4 4 4 4 3 3 3 3 3 3 3 3 3 3 3 3 3 3 3 2 2 2 2 2 2 2 2 1 1 1 1 1 1 1 1 1 1 1
3 3 3 3 3 3 3 3 3 3 3 3 3 2 3 3 2 2 2 2 2 2 2 2 2 2 2 2 2 2 2 1 1 1 1 1 1 1 1 1 1 1 1
3 3 2 2 2 2 3 3 2 2 2 2 2 2 2 2 2 2 2 2 2 2 1 1 1 1 1 1 1 1 1 1 1 0 0 0 1 1 1 0 0 0 1
2 2 2 2 2 2 2 2 2 2 2 1 1 1 1 1 1 1 1 1 1 1 1 1 1 1 1 0 0 0 0 0 0 0 0 0 0 0 0 -0 -0 0 0
1 1 1 1 1 1 1 1 1 1 1 1 1 1 1 1 1 1 0 0 0 -0 -0 0 -0 -0 -0 -0 -0 -0 -0 -0 -0 -0 -0 -0 -0 -0 -0 -0 -1 -1 -1
1 1 1 1 1 1 1 1 0 0 0 0 0 0 0 0 0 -0 -0 -1 -1 -1 -1 -1 -1 -1 -1 -1 -1 -1 -1 -1 -1 -1 -1 -0 -0 -0 -0 -0 -1 -1 -1
0 0 0 0 0 0 0 0 -0 -0 -0 -0 -0 -0 -0 -1 -1 -1 -1 -1 -1 -1 -1 -1 -1 -1 -1 -1 -1 -1 -1 -1 -1 -1 -1 -1 -1 -1 -1 -1 -1 -1 -1
-0 -0 -0 -0 -0 -0 -0 -0 -0 -1 -1 -1 -1 -1 -1 -1 -1 -2 -2 -2 -2 -2 -2 -2 -2 -2 -2 -2 -2 -2 -2 -2 -1 -1 -1 -1 -1 -1 -1 -1 -1 -1 -1
-1 -1 -1 -1 -1 -1 -1 -1 -1 -1 -1 -2 -2 -2 -2 -2 -2 -2 -2 -2 -2 -2 -2 -2 -2 -2 -2 -2 -2 -2 -2 -2 -2 -2 -2 -2 -2 -2 -2 -1 -1 -1 -1
-2 -2 -2 -2 -2 -1 -1 -1 -2 -2 -2 -2 -3 -3 -3 -2 -2 -2 -3 -2 -2 -2 -2 -2 -2 -2 -2 -2 -2 -2 -2 -3 -2 -2 -2 -2 -2 -2 -2 -2 -2 -2 -2
-2 -2 -2 -2 -2 -2 -2 -2 -2 -3 -3 -3 -3 -3 -3 -3 -3 -3 -3 -3 -3 -3 -3 -3 -3 -3 -3 -3 -3 -3 -3 -3 -3 -3 -3 -2 -2 -2 -2 -2 -2 -2 -2
-3 -3 -3 -3 -3 -3 -3 -3 -3 -3 -3 -3 -3 -3 -3 -3 -3 -3 -3 -3 -3 -3 -3 -3 -3 -3 -3 -3 -3 -3 -3 -3 -3 -3 -3 -2 -2 -2 -2 -2 -2 -2 -2
-3 -3 -3 -3 -3 -3 -3 -4 -4 -4 -4 -4 -4 -4 -4 -4 -4 -3 -3 -3 -3 -3 -3 -3 -3 -3 -3 -3 -3 -3 -3 -3 -3 -3 -3 -3 -3 -3 -3 -3 -3 -3 -3
-4 -4 -4 -4 -4 -4 -4 -4 -4 -5 -5 -4 -4 -4 -4 -4 -4 -4 -4 -3 -4 -4 -4 -4 -4 -4 -4 -4 -4 -4 -3 -3 -3 -3 -3 -3 -3 -3 -3 -3 -3 -3 -3
-4 -4 -4 -4 -4 -4 -4 -5 -5 -5 -5 -5 -5 -5 -4 -4 -4 -4 -4 -4 -4 -4 -4 -4 -4 -4 -4 -4 -4 -4 -4 -3 -3 -3 -3 -3 -3 -3 -3 -3 -3 -3 -3
-5 -5 -5 -5 -5 -5 -5 -5 -5 -5 -5 -5 -5 -5 -5 -5 -5 -5 -4 -4 -4 -4 -5 -4 -4 -4 -4 -4 -4 -4 -4 -4 -4 -4 -4 -4 -4 -3 -3 -4 -4 -4 -4
-5 -5 -5 -5 -5 -6 -6 -6 -6 -6 -6 -6 -5 -5 -5 -5 -5 -5 -5 -5 -5 -5 -5 -5 -5 -4 -4 -4 -4 -4 -4 -4 -4 -4 -4 -4 -4 -4 -4 -4 -4 -4 -4
-6 -6 -6 -6 -6 -6 -6 -6 -6 -6 -6 -6 -6 -5 -5 -5 -5 -5 -5 -5 -5 -5 -5 -5 -5 -4 -4 -4 -4 -4 -4 -4 -4 -4 -4 -4 -4 -4 -4 -4 -4 -4 -4
-6 -6 -6 -6 -6 -6 -7 -7 -7 -6 -6 -6 -6 -6 -6 -5 -5 -6 -6 -6 -6 -6 -5 -5 -5 -5 -4 -4 -4 -4 -4 -4 -4 -4 -4 -4 -4 -4 -4 -4 -4 -4 -4
-7 -7 -7 -7 -7 -7 -7 -7 -7 -7 -6 -6 -6 -6 -6 -6 -6 -6 -6 -6 -6 -6 -6 -5 -5 -5 -5 -4 -4 -4 -4 -4 -4 -4 -4 -4 -4 -4 -4 -4 -4 -4 -4
-7 -7 -7 -7 -7 -7 -7 -7 -7 -7 -7 -7 -7 -6 -6 -6 -6 -6 -6 -6 -6 -6 -6 -5 -5 -5 -5 -5 -4 -4 -4 -4 -4 -4 -4 -4 -4 -4 -4 -4 -4 -4 -5

GEFSGL_850_meantemp_234.txt.gz
Temperature
7 7 7 7 7 6 6 6 6 6 6 6 6 6 6 5 5 5 5 5 5 5 5 5 5 4 4 4 4 4 3 3 3 3 3 3 3 4 4 4 4 4 4
6 6 6 6 6 6 6 6 5 5 5 5 5 5 5 5 5 5 5 5 4 4 4 4 4 4 4 3 3 3 3 3 2 3 3 3 3 3 3 3 3 3 3
6 6 6 6 5 5 5 5 5 5 5 5 5 5 5 5 4 4 4 4 4 4 4 4 4 3 3 3 3 3 3 2 2 2 2 3 3 3 3 3 3 3 3
5 5 5 5 5 5 5 5 5 4 4 4 4 4 4 4 4 4 4 4 4 3 3 3 3 3 3 3 2 2 2 2 2 2 2 2 2 2 2 2 2 2 3
5 5 5 5 5 4 4 4 4 4 4 4 4 4 4 3 3 3 3 3 3 3 3 3 3 3 2 2 2 2 2 2 2 2 2 2 2 2 2 2 2 2 2
4 4 4 4 4 4 4 4 4 4 4 3 3 3 3 3 3 3 2 2 2 2 2 2 2 2 2 2 2 2 1 1 1 1 1 1 1 1 1 1 1 1 1
3 3 3 3 3 3 3 3 3 3 3 3 3 3 3 2 2 2 2 2 2 2 2 2 2 2 2 1 2 1 1 1 1 1 1 0 0 0 0 0 0 0 -0
3 3 3 3 3 3 3 3 3 3 3 2 2 2 2 2 2 2 1 1 1 1 1 1 1 1 1 1 1 1 1 1 0 0 0 -0 -0 -0 -0 -0 -1 -0 -0
2 2 2 2 2 2 2 2 2 2 2 2 2 1 1 1 1 1 1 1 1 1 1 1 0 0 0 0 0 0 0 0 -0 -0 -0 -1 -1 -1 -1 -1 -1 -1 -1
2 2 1 1 1 1 1 1 1 1 1 1 1 1 1 1 1 0 0 0 0 0 -0 -0 -0 -0 -0 -0 -0 -0 -0 -0 -1 -1 -1 -1 -1 -1 -1 -1 -1 -1 -2
1 1 1 1 1 1 1 1 0 0 0 0 0 0 0 0 0 -0 -0 -1 -1 -1 -1 -1 -1 -1 -1 -1 -1 -1 -1 -1 -1 -1 -1 -1 -1 -1 -1 -1 -1 -1 -2
0 0 0 0 -0 -0 0 0 -0 -0 -0 -0 -0 -0 -0 -0 -1 -1 -1 -1 -1 -1 -1 -1 -1 -1 -1 -1 -1 -2 -2 -2 -2 -2 -2 -1 -2 -2 -2 -2 -2 -2 -2
-0 -0 -0 -1 -1 -1 -1 -0 -1 -1 -1 -1 -1 -1 -1 -1 -1 -1 -2 -2 -2 -2 -2 -2 -2 -2 -2 -2 -2 -2 -2 -2 -2 -2 -2 -2 -2 -2 -2 -2 -2 -2 -2
-1 -1 -1 -1 -1 -1 -1 -1 -1 -1 -1 -2 -2 -2 -2 -2 -2 -2 -2 -2 -2 -2 -2 -2 -2 -2 -2 -2 -2 -2 -3 -3 -3 -3 -3 -2 -2 -2 -2 -2 -2 -2 -2
-1 -1 -1 -1 -1 -1 -1 -2 -2 -2 -2 -3 -3 -3 -3 -3 -3 -3 -2 -2 -2 -2 -2 -2 -2 -2 -3 -3 -3 -3 -3 -3 -3 -3 -3 -3 -3 -3 -2 -2 -2 -2 -2
-2 -2 -2 -2 -2 -2 -2 -2 -3 -3 -3 -3 -3 -3 -3 -3 -3 -3 -3 -3 -3 -3 -3 -3 -3 -3 -3 -3 -3 -3 -3 -3 -3 -3 -3 -3 -3 -3 -3 -3 -3 -3 -3
-2 -2 -2 -2 -3 -3 -3 -3 -3 -3 -3 -3 -3 -3 -3 -3 -3 -3 -3 -3 -3 -3 -3 -3 -3 -3 -4 -4 -4 -4 -4 -3 -3 -3 -3 -3 -3 -3 -3 -3 -3 -3 -3
-3 -3 -3 -3 -3 -3 -3 -3 -4 -4 -3 -3 -3 -4 -4 -4 -4 -4 -4 -4 -3 -3 -4 -4 -4 -4 -4 -4 -4 -4 -4 -4 -4 -4 -4 -4 -4 -4 -4 -4 -4 -4 -4
-3 -3 -3 -4 -4 -4 -4 -4 -4 -4 -4 -4 -4 -4 -4 -4 -4 -4 -4 -4 -4 -4 -4 -4 -4 -4 -4 -4 -4 -4 -4 -4 -4 -4 -4 -4 -4 -4 -4 -4 -4 -4 -4
-4 -4 -4 -4 -4 -4 -5 -5 -5 -5 -5 -5 -5 -5 -5 -4 -4 -4 -4 -4 -4 -4 -4 -5 -5 -5 -5 -4 -4 -4 -4 -4 -4 -4 -4 -4 -4 -4 -4 -4 -4 -4 -4
-5 -5 -5 -5 -5 -5 -5 -5 -5 -5 -5 -5 -5 -5 -5 -5 -5 -5 -5 -5 -5 -5 -5 -5 -5 -5 -5 -5 -5 -5 -4 -4 -4 -4 -4 -4 -4 -4 -5 -4 -4 -5 -5
-5 -5 -6 -6 -6 -6 -6 -6 -6 -6 -6 -6 -5 -5 -5 -5 -5 -5 -5 -5 -5 -5 -5 -5 -5 -5 -5 -5 -5 -5 -5 -5 -4 -4 -4 -4 -5 -5 -5 -5 -5 -5 -5
-6 -6 -6 -6 -6 -6 -6 -7 -7 -6 -6 -6 -6 -6 -6 -6 -6 -6 -5 -5 -5 -5 -5 -5 -5 -5 -5 -5 -5 -5 -5 -5 -5 -5 -5 -5 -5 -5 -5 -5 -5 -5 -5
-7 -7 -7 -7 -7 -7 -7 -7 -7 -7 -6 -6 -6 -6 -6 -6 -6 -6 -6 -6 -6 -6 -6 -6 -5 -5 -5 -5 -5 -5 -5 -5 -5 -5 -5 -5 -5 -5 -5 -5 -5 -5 -5
-7 -7 -7 -7 -7 -7 -7 -7 -7 -7 -6 -6 -7 -7 -7 -6 -6 -6 -6 -6 -6 -6 -6 -6 -5 -5 -5 -5 -5 -5 -5 -5 -5 -5 -5 -5 -5 -5 -5 -5 -5 -5 -5
-7 -7 -7 -7 -7 -7 -7 -7 -7 -7 -7 -7 -7 -7 -7 -7 -7 -7 -7 -6 -6 -6 -6 -6 -6 -5 -5 -5 -5 -5 -5 -5 -5 -5 -5 -5 -5 -5 -5 -5 -5 -5 -5

GEFSGL_850_meantemp_240.txt.gz
Temperature
7 7 7 7 7 7 7 7 7 6 6 6 6 6 6 6 6 5 5 5 5 5 5 5 5 4 4 4 4 3 3 3 3 3 3 3 3 3 3 3 3 3 3
6 6 7 7 7 6 6 6 6 6 6 6 5 5 5 5 5 5 5 5 5 5 5 4 4 4 4 4 3 3 3 3 2 2 2 2 3 2 2 2 3 3 3
6 6 6 6 6 6 6 6 6 5 5 5 5 5 5 5 5 5 5 4 4 4 4 4 4 3 3 3 3 2 2 2 2 2 2 2 2 2 2 2 2 2 2
5 5 5 5 5 5 5 5 5 5 5 5 5 5 4 4 4 4 4 4 4 3 3 3 3 3 3 3 2 2 2 2 1 1 1 1 1 1 1 1 2 2 2
4 5 5 5 5 5 5 5 5 5 5 5 4 4 4 4 4 4 4 3 3 3 3 3 3 2 2 2 2 2 2 1 1 1 1 1 1 1 1 1 1 1 1
4 4 4 4 4 4 4 4 4 4 4 4 4 4 4 3 3 3 3 3 2 2 2 2 2 2 2 2 2 1 1 1 1 1 1 0 0 0 0 0 0 0 0
3 3 3 3 4 4 4 4 4 4 4 3 3 3 3 3 3 3 2 2 2 2 2 1 1 2 1 1 1 1 1 1 1 0 0 0 -0 -0 -0 -0 -0 -1 -1
3 3 3 3 3 3 3 3 3 3 3 3 3 2 2 2 2 2 2 2 1 1 1 1 1 1 0 0 0 0 0 0 0 0 -0 -0 -0 -0 -1 -1 -1 -1 -1
2 2 2 2 2 2 2 2 2 2 2 2 2 2 2 2 2 1 1 1 1 1 1 0 0 0 -0 -0 -0 -0 -0 -0 -0 -0 -1 -1 -1 -1 -1 -1 -1 -1 -1
1 1 1 1 1 1 2 2 2 2 1 1 1 1 1 1 1 1 0 0 -0 -0 -0 -0 -0 -1 -1 -1 -1 -1 -1 -1 -1 -1 -1 -1 -1 -1 -1 -1 -1 -1 -2
0 1 1 1 1 1 1 1 1 1 1 1 0 0 0 0 0 0 -0 -0 -1 -1 -1 -1 -1 -1 -1 -1 -1 -1 -1 -1 -1 -1 -1 -1 -1 -1 -1 -1 -2 -2 -2
-0 -0 0 0 0 0 0 0 0 0 -0 -0 -0 -0 -0 -0 -0 -1 -1 -1 -1 -1 -1 -1 -2 -1 -1 -1 -1 -1 -1 -1 -2 -2 -2 -2 -2 -2 -2 -2 -2 -2 -2
-1 -1 -1 -1 -0 -0 -0 -0 -1 -1 -1 -1 -1 -1 -1 -1 -1 -1 -1 -1 -1 -2 -2 -2 -2 -2 -2 -2 -2 -2 -2 -2 -2 -2 -2 -2 -2 -2 -2 -2 -2 -2 -2
-1 -1 -1 -1 -1 -1 -1 -1 -1 -1 -2 -2 -2 -2 -2 -2 -2 -2 -2 -2 -2 -2 -2 -2 -2 -2 -2 -2 -2 -2 -2 -2 -3 -3 -3 -2 -2 -2 -2 -2 -2 -2 -2
-2 -2 -2 -2 -2 -2 -2 -2 -2 -2 -2 -2 -2 -2 -3 -2 -2 -2 -2 -2 -2 -2 -2 -2 -2 -2 -2 -2 -2 -3 -3 -3 -3 -3 -3 -3 -3 -3 -3 -3 -3 -2 -3
-2 -2 -2 -2 -2 -2 -2 -2 -2 -3 -3 -3 -3 -3 -3 -3 -3 -3 -3 -3 -3 -3 -3 -3 -3 -3 -3 -3 -3 -3 -3 -3 -3 -3 -3 -3 -3 -3 -3 -3 -3 -3 -3
-3 -3 -3 -3 -3 -3 -3 -3 -3 -3 -3 -3 -3 -3 -3 -3 -3 -3 -3 -3 -3 -3 -3 -3 -3 -3 -3 -3 -3 -4 -4 -3 -4 -4 -4 -4 -4 -4 -3 -3 -3 -4 -3
-3 -3 -3 -3 -3 -3 -3 -4 -4 -4 -4 -3 -3 -3 -3 -3 -3 -3 -3 -3 -3 -3 -3 -4 -4 -4 -4 -4 -4 -4 -4 -4 -4 -4 -4 -4 -4 -4 -4 -4 -4 -4 -4
-4 -4 -4 -4 -4 -4 -4 -4 -4 -4 -4 -4 -4 -4 -4 -4 -4 -4 -4 -4 -4 -4 -4 -4 -4 -4 -4 -4 -4 -4 -4 -4 -4 -4 -4 -4 -4 -4 -4 -4 -4 -4 -4
-4 -4 -4 -4 -4 -4 -5 -5 -5 -5 -5 -5 -5 -4 -4 -4 -4 -4 -4 -4 -4 -5 -5 -5 -5 -5 -5 -4 -5 -5 -5 -5 -5 -5 -4 -5 -5 -5 -5 -5 -5 -5 -5
-5 -5 -5 -5 -5 -5 -5 -5 -5 -5 -5 -5 -5 -5 -5 -5 -5 -5 -5 -5 -5 -5 -5 -5 -5 -5 -5 -5 -5 -5 -5 -5 -5 -5 -5 -5 -5 -5 -5 -5 -5 -5 -5
-5 -5 -5 -6 -6 -6 -6 -6 -6 -6 -6 -6 -6 -5 -5 -5 -5 -5 -5 -5 -5 -5 -5 -5 -5 -5 -5 -5 -5 -5 -5 -5 -5 -5 -5 -5 -5 -5 -5 -5 -5 -5 -5
-6 -6 -6 -6 -6 -6 -6 -6 -6 -6 -6 -6 -6 -6 -6 -6 -6 -6 -6 -6 -6 -6 -6 -6 -6 -5 -5 -5 -5 -5 -5 -5 -5 -5 -5 -5 -5 -5 -5 -5 -5 -5 -5
-6 -6 -6 -7 -7 -7 -7 -7 -7 -7 -7 -6 -6 -6 -6 -6 -6 -6 -6 -6 -6 -6 -6 -6 -6 -6 -6 -5 -5 -5 -5 -5 -5 -5 -5 -5 -5 -5 -5 -6 -5 -5 -5
-7 -7 -7 -7 -7 -7 -7 -7 -7 -7 -7 -7 -7 -7 -7 -7 -7 -6 -6 -6 -6 -6 -6 -6 -6 -6 -6 -5 -5 -5 -5 -5 -5 -5 -5 -5 -5 -5 -6 -6 -6 -6 -6
-7 -7 -7 -7 -7 -7 -7 -7 -7 -7 -7 -7 -7 -7 -7 -7 -7 -7 -7 -6 -6 -6 -6 -6 -6 -6 -6 -5 -5 -5 -5 -5 -5 -5 -5 -5 -5 -5 -5 -6 -6 -6 -6